GEFSSGP_500_meanwind_000.txt.gz
Wind_Speed
4 2 1 1 1 0 2 2 2 3 6 8 9 9 6 5 4 2 1 3 5 7 10 11 13 13 11 10 11 13 14 17 20 19 16 14 12 11 10 9 9 9 7 6 7 7 4 6 9
2 1 0 2 3 3 0 1 2 4 7 9 8 7 6 6 5 4 1 1 2 4 5 8 10 11 12 10 10 11 13 16 19 19 17 15 13 12 11 10 12 12 10 8 8 7 5 2 8
1 3 3 3 5 2 2 2 2 2 5 7 8 7 6 7 7 6 4 3 3 2 2 4 8 8 10 10 9 9 10 14 17 18 16 15 15 14 13 12 13 14 13 10 8 7 5 1 7
3 4 3 5 5 2 1 4 2 1 3 4 5 7 8 8 7 7 6 5 5 4 3 2 4 5 7 8 7 7 7 10 14 16 15 15 15 15 15 14 13 13 12 11 8 6 6 2 5
5 4 0 2 4 3 3 5 4 4 1 4 4 6 8 9 9 8 6 5 5 5 5 3 1 3 5 6 5 4 4 6 9 13 15 15 16 17 17 16 13 11 10 10 9 7 7 5 2
7 6 4 7 4 2 2 2 4 5 1 4 5 4 6 8 9 9 8 6 5 6 6 5 3 2 2 4 4 3 1 2 4 8 12 14 15 17 18 17 15 12 11 10 9 7 6 5 1
11 9 7 5 7 7 6 3 1 2 4 5 6 6 5 5 7 8 8 7 6 7 8 7 6 5 2 1 3 2 1 1 2 4 8 11 12 13 15 17 17 14 11 10 9 7 4 3 2
12 12 9 9 10 7 6 4 4 3 6 6 7 8 7 6 6 7 8 8 8 9 10 9 9 8 6 4 1 2 2 3 5 5 7 7 8 8 10 13 15 14 11 9 8 7 3 1 4
13 13 12 12 10 10 7 5 6 5 5 6 7 8 9 9 9 9 9 9 9 9 10 10 10 10 9 8 6 4 4 5 7 8 9 7 5 6 6 7 9 11 11 10 9 7 5 5 6
13 12 13 13 13 11 9 7 8 9 9 10 11 11 11 13 13 12 11 11 10 9 9 9 11 12 12 10 8 8 7 7 9 10 10 9 7 6 6 5 6 7 8 8 8 6 5 6 8
13 13 13 13 15 14 13 14 11 10 10 12 14 15 15 16 17 17 15 14 12 10 10 10 10 12 13 12 10 9 9 10 11 12 13 12 10 8 7 6 6 6 7 6 6 5 5 7 9
16 16 16 15 15 14 16 19 20 17 15 16 17 18 17 17 19 20 21 19 16 13 11 10 12 13 13 14 12 12 12 12 14 15 15 15 14 11 10 10 8 8 8 6 6 4 5 7 9
20 20 20 17 17 17 17 20 22 21 21 20 21 22 20 18 17 20 20 22 22 18 15 11 11 11 13 15 15 15 14 15 16 16 17 16 17 14 13 13 13 12 11 8 8 5 6 9 10
23 22 23 22 21 22 22 23 23 23 24 25 25 25 24 20 16 19 21 21 23 22 17 15 12 12 14 15 16 16 16 17 17 17 18 18 18 16 14 15 17 17 15 12 9 7 8 10 11
28 27 27 27 28 30 29 28 29 29 28 30 30 29 27 23 20 20 20 22 23 22 22 19 16 16 17 19 20 20 19 18 18 17 18 18 18 17 16 17 19 20 18 17 17 16 16 13 13
31 31 32 31 33 34 35 33 34 35 35 34 34 33 31 28 26 23 22 24 24 23 24 23 19 18 19 21 20 18 17 16 17 18 18 17 17 16 18 18 19 20 19 21 22 23 23 19 15
35 36 36 37 37 38 39 38 38 40 40 39 38 38 36 35 31 26 22 21 22 24 25 27 25 20 19 20 19 16 16 18 17 16 16 16 17 18 18 18 19 19 22 25 27 26 24 21 21
36 38 40 41 41 42 43 43 42 45 47 45 44 44 42 40 37 31 26 23 22 25 27 30 31 25 22 23 24 23 21 19 17 14 16 18 18 18 19 18 21 22 24 27 31 29 25 25 26
37 39 39 40 41 42 43 43 45 47 48 47 47 48 47 44 41 35 31 29 27 27 25 26 29 28 25 24 26 25 21 20 19 18 19 19 20 19 19 21 22 24 26 28 29 29 26 26 26
36 37 37 38 40 40 40 40 43 44 46 47 46 46 45 43 41 38 33 32 32 30 28 27 29 32 29 26 25 25 22 21 22 22 22 23 23 22 22 24 24 26 29 28 26 26 24 25 26
35 36 37 39 38 38 39 39 40 42 44 45 45 44 44 42 39 36 33 31 32 37 32 29 31 36 36 32 27 27 26 26 26 24 25 26 25 25 26 26 26 27 26 23 23 24 25 25 24
34 35 36 36 36 35 36 37 35 35 37 40 42 42 41 39 39 39 37 34 30 36 36 36 36 37 43 41 34 32 29 27 26 27 26 27 28 28 28 26 24 23 22 22 21 24 27 25 25
38 38 38 39 39 39 37 39 38 37 38 36 35 36 37 37 37 36 37 36 34 37 37 40 44 44 46 40 35 33 31 25 24 28 28 29 29 28 28 25 25 23 20 21 22 25 28 27 28
43 44 45 48 46 45 43 43 42 41 39 36 32 30 32 33 34 34 36 37 37 41 44 44 48 46 47 38 32 32 29 24 25 29 29 28 29 29 29 26 25 21 22 23 23 27 27 26 29
47 49 52 54 53 52 49 48 44 40 36 32 29 27 30 34 35 35 36 36 37 39 44 49 49 48 48 41 35 33 28 25 26 29 30 30 31 31 28 28 28 26 26 23 25 29 28 26 28
51 51 49 51 51 51 49 45 41 38 34 31 26 24 25 33 37 37 39 41 41 41 41 48 47 45 52 43 33 30 25 24 27 32 31 29 30 28 30 32 33 30 28 25 25 29 28 25 24
50 46 43 39 36 36 34 33 32 32 32 32 27 24 22 26 33 36 37 41 39 40 43 48 49 47 49 44 35 26 22 25 26 28 28 28 27 28 32 34 34 33 29 24 23 24 23 22 20
28 24 16 11 12 12 10 11 12 16 20 23 22 19 18 20 23 28 35 35 39 36 34 33 34 27 17 22 22 21 25 24 22 25 25 28 29 31 34 34 34 33 28 24 22 23 21 19 16
15 16 7 2 3 3 7 8 6 9 16 15 12 15 11 10 13 18 28 33 36 43 26 25 18 8 11 12 15 22 25 21 19 21 25 29 30 31 32 29 28 25 23 23 23 22 21 19 16
17 13 8 6 6 6 7 12 5 2 7 7 7 12 7 5 0 4 4 12 6 11 5 9 13 12 10 10 17 21 23 22 21 21 19 20 23 24 25 28 24 18 17 20 22 22 20 19 16

GEFSSGP_500_meanwind_006.txt.gz
Wind_Speed
4 4 4 3 2 2 3 4 5 5 4 4 4 5 6 5 4 5 6 6 7 8 10 11 10 11 11 12 13 15 16 17 17 17 16 15 13 11 10 9 8 6 5 4 4 5 3 4 12
4 4 4 3 0 2 1 2 4 5 5 4 4 4 4 4 4 4 4 4 4 5 7 9 10 10 10 10 11 13 14 15 16 16 16 15 13 12 10 9 9 8 5 3 4 5 3 1 8
4 6 7 6 3 1 2 1 4 5 5 5 4 3 4 3 3 2 3 3 2 2 3 5 7 9 9 9 9 10 12 13 14 15 15 15 15 14 12 10 9 8 7 5 4 5 4 2 6
5 7 8 9 7 4 3 3 4 5 7 6 4 2 3 4 4 2 2 4 3 2 1 2 4 6 7 6 7 8 9 10 12 12 13 13 14 15 13 12 11 9 8 7 6 6 5 2 5
3 4 5 6 7 7 5 4 4 5 6 6 5 3 3 4 5 4 3 3 5 4 2 1 1 3 4 4 5 6 6 6 8 9 10 11 12 13 13 12 12 11 11 10 8 7 5 2 3
2 2 1 1 2 5 5 4 4 4 5 5 5 5 4 6 6 5 5 4 4 4 4 3 3 1 2 3 4 5 4 3 2 4 6 7 8 11 12 13 12 13 12 11 10 8 6 3 2
3 3 3 3 2 3 4 3 3 3 4 6 7 7 6 4 5 6 6 5 4 3 3 4 5 5 3 2 3 4 3 3 1 2 3 4 4 5 8 11 13 14 13 11 10 9 7 5 2
5 6 5 4 2 0 3 2 2 3 2 2 4 5 6 6 5 5 6 5 4 2 1 3 6 7 7 5 3 3 3 3 2 2 4 5 4 3 4 5 9 12 12 10 9 8 7 5 4
7 8 7 7 4 3 3 4 3 4 4 4 4 4 5 6 6 4 4 4 4 4 2 3 5 8 9 9 8 6 5 3 2 3 4 5 5 5 5 4 3 7 8 8 7 7 6 5 4
10 10 9 8 7 6 6 6 5 5 7 8 8 8 7 7 7 7 4 2 2 3 4 5 5 8 10 11 11 10 9 7 5 6 5 6 6 6 6 5 4 4 5 5 5 5 5 4 3
13 12 11 11 11 11 10 11 11 10 10 10 11 11 11 11 11 10 8 6 5 4 4 5 6 8 11 13 14 13 12 10 9 8 9 9 9 7 6 5 5 5 4 2 1 1 2 3 2
14 13 14 14 14 15 15 15 15 16 15 16 16 16 15 14 14 13 11 9 9 9 8 7 8 10 12 14 15 15 14 13 11 11 11 11 11 9 8 8 7 6 7 7 7 6 5 3 2
17 16 17 17 17 18 19 18 19 20 19 17 17 18 17 17 17 17 16 15 12 12 12 11 11 12 13 14 15 17 16 15 14 14 13 13 12 11 10 10 10 9 9 10 11 11 10 9 7
21 20 21 21 22 22 23 24 25 24 23 21 20 20 21 21 22 22 21 20 18 16 14 14 14 14 14 16 17 17 18 18 18 18 17 17 16 15 13 11 11 12 13 14 15 14 12 11 11
24 25 26 26 27 26 28 31 30 28 28 27 26 25 25 26 26 27 27 26 24 23 21 20 18 18 17 16 18 19 20 20 21 21 20 21 20 18 16 15 14 14 16 18 19 18 16 16 16
27 28 30 32 32 32 33 37 34 33 32 32 31 30 29 29 29 30 30 30 29 27 26 24 21 20 20 18 17 19 21 22 22 22 22 22 23 22 19 17 17 18 19 20 21 19 20 21 21
31 33 35 37 36 36 37 41 39 38 36 36 36 35 34 33 33 33 33 33 33 31 29 27 24 22 22 21 19 20 22 22 23 22 23 23 24 24 21 19 19 21 21 21 21 22 23 24 24
34 36 38 40 40 40 41 43 43 42 41 40 40 40 39 38 37 37 36 35 35 34 33 30 28 26 25 25 24 24 24 25 26 26 25 26 27 27 23 21 22 23 24 23 22 23 23 25 26
35 37 39 41 41 41 43 45 45 44 43 43 42 41 40 40 38 38 38 37 36 36 35 33 32 31 30 30 30 29 28 27 28 29 29 29 30 29 25 23 24 24 24 24 24 23 24 25 25
36 37 39 40 40 41 41 43 43 42 41 40 39 38 36 35 34 34 35 36 37 37 37 36 35 35 35 34 35 35 32 29 30 32 33 33 32 31 27 25 24 24 24 24 25 26 26 24 23
38 39 40 40 40 40 40 41 40 39 37 36 34 33 31 29 28 28 30 32 34 36 38 38 38 38 38 38 39 40 37 34 34 35 36 37 35 33 30 27 25 24 24 25 26 26 24 23 22
41 42 42 42 42 42 41 40 40 35 34 32 32 31 29 28 27 27 27 29 31 35 38 39 39 39 40 41 43 45 41 38 39 39 39 39 37 34 32 28 26 25 25 26 26 25 22 22 23
45 46 47 46 46 46 46 45 44 40 37 35 35 34 32 31 30 29 28 29 31 35 39 40 40 41 42 43 46 49 46 41 43 43 39 37 36 34 32 29 28 27 27 27 27 24 22 22 24
44 46 48 48 47 48 45 45 45 46 40 39 38 37 36 35 34 33 32 32 33 35 39 41 42 44 45 45 48 50 49 44 44 45 41 37 35 34 31 28 28 29 28 28 27 25 24 24 24
35 36 38 39 40 40 45 44 45 46 43 41 40 40 40 39 38 38 37 36 36 35 38 40 42 44 45 45 46 48 47 47 47 46 44 40 37 34 31 29 28 28 28 28 28 26 26 26 26
25 23 22 23 25 29 33 35 38 37 39 39 38 38 38 39 40 39 39 39 37 36 37 38 39 40 41 41 44 44 44 46 49 49 46 43 38 33 30 27 27 28 29 28 29 30 30 29 27
20 17 13 8 6 8 13 20 26 29 32 33 32 31 31 33 33 35 36 36 36 34 34 36 36 35 36 36 37 40 42 45 47 48 45 40 35 29 23 21 24 27 29 30 32 32 30 29 27
22 19 13 10 8 6 6 5 7 12 16 16 15 14 15 17 20 24 27 28 27 27 28 32 33 31 32 33 35 38 41 43 40 39 35 30 24 17 15 19 24 29 32 33 33 31 28 27 26
20 19 17 15 14 12 10 10 8 4 4 5 7 8 7 5 6 10 15 19 21 22 24 27 29 29 28 29 31 33 32 31 28 24 21 18 15 14 18 22 26 28 29 29 29 27 24 24 25
22 19 17 16 16 16 15 14 10 5 5 7 10 11 9 8 6 4 3 3 5 8 11 15 19 21 22 22 23 21 19 16 15 13 12 12 12 15 18 21 23 25 25 25 24 24 23 23 24

GEFSSGP_500_meanwind_012.txt.gz
Wind_Speed
5 3 3 4 3 3 6 6 6 6 6 6 5 3 2 1 2 3 1 3 5 7 7 7 9 10 12 13 13 14 15 17 18 19 18 17 16 15 13 12 10 8 6 5 5 4 3 4 6
5 2 2 3 3 5 5 4 4 4 4 4 4 3 3 2 2 3 3 2 3 4 6 6 7 9 10 11 12 13 14 15 17 17 17 17 17 16 15 14 14 12 9 7 6 5 4 3 6
5 4 5 5 7 5 3 3 3 3 3 3 2 3 3 2 2 4 4 3 2 2 3 4 6 7 8 9 10 11 12 13 14 14 15 15 16 17 17 16 16 15 13 11 9 8 6 4 2
7 8 7 10 8 6 5 3 3 2 2 2 1 2 2 2 2 3 4 4 3 2 2 2 3 4 6 7 8 8 9 10 10 11 12 13 13 15 16 16 17 17 16 14 12 10 9 7 4
5 5 5 8 7 6 6 4 3 2 3 3 2 2 2 2 2 1 2 4 4 4 3 2 2 2 3 4 5 6 5 5 6 7 8 9 10 12 14 15 16 16 16 16 15 13 10 8 6
4 3 2 3 2 4 4 3 2 2 3 3 2 2 2 3 3 1 1 3 4 5 5 4 3 2 3 4 5 5 4 3 1 2 4 4 6 8 11 13 14 14 14 14 15 14 13 10 7
4 3 3 2 2 2 2 2 2 1 1 1 2 2 3 4 3 2 0 2 3 4 6 6 5 5 5 5 5 5 5 4 3 2 2 1 1 3 5 8 11 12 12 12 12 13 12 11 8
6 6 6 7 7 5 3 3 3 3 3 2 3 3 3 4 4 3 3 2 2 3 4 6 7 8 8 7 6 6 6 6 5 5 3 2 1 1 2 3 6 8 9 9 10 10 10 9 8
11 10 8 10 11 9 8 7 7 7 7 7 6 6 5 5 4 4 4 4 4 4 4 5 7 8 9 10 9 8 8 8 7 6 5 4 3 3 3 2 3 4 5 6 6 7 8 8 7
14 14 11 14 16 13 12 12 11 11 11 10 10 9 8 8 8 7 6 6 7 7 7 7 7 8 9 11 12 11 12 11 10 10 8 7 6 5 5 4 4 4 3 3 3 4 5 6 6
17 18 16 17 17 16 16 16 15 16 15 13 14 13 11 11 11 10 9 9 9 9 10 11 11 10 10 11 12 13 15 15 14 14 13 12 10 8 8 7 7 7 6 5 5 5 5 5 5
18 19 18 18 17 19 19 20 19 19 17 17 18 18 18 17 15 14 13 11 10 11 11 12 12 13 13 13 14 15 16 18 18 18 17 16 14 12 10 10 10 10 10 9 8 8 9 8 8
20 21 20 20 20 21 22 23 23 22 20 21 22 23 23 22 20 18 17 16 14 13 13 12 12 13 14 16 16 16 17 19 20 20 20 18 17 15 14 13 13 14 14 13 11 11 11 11 10
21 22 22 23 24 25 25 26 28 26 22 24 24 25 26 24 23 22 21 21 19 18 17 16 17 16 15 16 18 18 18 19 20 21 21 21 21 20 18 16 16 17 17 16 14 14 14 14 14
22 24 26 27 29 30 28 31 34 31 28 28 27 28 28 28 27 27 27 26 25 24 22 21 21 21 20 18 18 19 20 19 20 21 22 23 24 24 23 21 20 20 19 18 17 16 17 16 15
25 27 28 29 32 35 33 37 39 37 34 33 32 33 32 31 31 32 32 30 29 29 28 28 26 25 24 23 21 21 21 21 21 21 23 24 25 26 26 25 24 23 22 21 21 19 18 17 17
27 28 28 32 33 36 37 39 42 41 38 38 38 37 37 37 36 36 35 34 33 32 32 32 30 28 28 26 25 25 23 24 24 23 24 25 25 26 26 26 26 25 24 24 24 22 21 20 19
29 30 32 34 36 35 32 35 43 43 41 41 42 42 42 42 41 40 38 37 36 36 35 35 35 32 30 29 28 28 28 26 26 26 26 27 27 27 26 26 27 26 26 27 27 25 24 22 21
31 32 34 35 38 42 44 44 45 45 43 42 42 44 44 45 44 42 40 40 39 39 38 37 37 36 34 32 31 31 31 30 29 28 28 28 29 29 28 28 29 29 28 29 28 27 26 23 22
32 34 36 38 40 43 45 45 43 44 43 42 41 41 42 42 42 40 39 39 38 37 36 36 35 35 34 32 32 33 34 34 32 31 30 29 30 30 30 30 31 31 31 30 29 28 26 24 22
30 34 37 39 40 42 43 44 43 42 43 43 41 39 39 38 37 36 35 35 34 32 31 30 30 30 30 31 31 34 35 34 33 32 32 31 31 32 31 32 33 33 33 31 29 29 27 25 23
25 28 31 34 38 39 39 42 37 34 40 42 41 39 36 34 33 31 31 31 30 29 28 26 25 25 26 28 30 33 35 36 36 37 38 34 33 34 34 35 36 36 34 31 31 31 29 27 25
24 28 31 34 34 33 32 33 32 35 40 41 39 38 38 36 33 30 29 29 29 29 28 26 26 25 26 28 30 31 34 37 39 42 42 39 37 38 37 39 39 37 34 31 31 33 32 30 27
27 29 31 30 26 23 21 24 29 35 39 40 37 37 37 36 34 32 31 30 30 30 30 30 29 28 29 30 32 33 34 38 41 43 43 41 39 40 40 40 39 37 34 33 34 35 35 32 28
26 27 27 24 19 16 16 19 26 31 37 40 40 39 37 36 35 33 33 33 33 33 33 33 33 32 33 34 34 34 35 37 41 43 43 39 39 40 40 38 37 37 34 34 35 37 36 33 28
23 22 23 20 15 13 14 17 19 23 29 35 40 43 41 38 37 35 35 34 34 34 35 36 36 36 36 36 36 34 33 34 37 38 39 39 38 38 37 35 35 35 34 34 35 37 34 30 26
22 21 20 18 14 13 14 15 18 21 24 26 30 34 36 36 34 33 33 33 33 34 35 36 37 38 37 36 34 32 31 31 32 33 35 36 36 35 35 36 37 36 36 34 34 34 30 27 25
23 21 19 17 14 12 12 14 15 14 16 16 18 21 22 22 22 23 23 25 28 30 33 35 35 35 34 32 30 29 28 28 28 27 29 31 33 34 35 36 35 35 34 33 31 29 26 24 24
23 22 20 17 15 14 14 15 16 13 12 10 6 5 9 9 10 10 12 14 16 19 23 25 27 28 28 27 25 24 24 25 25 26 28 29 30 31 31 30 28 27 26 26 26 24 21 21 22
23 22 21 18 16 16 16 17 16 12 11 9 8 8 7 6 5 4 3 5 7 9 11 13 16 17 19 19 19 19 20 21 22 24 24 24 23 21 19 19 20 21 22 21 20 20 19 20 22

GEFSSGP_500_meanwind_018.txt.gz
Wind_Speed
4 4 4 4 2 0 2 3 5 7 8 8 8 7 6 5 3 3 5 7 7 8 8 9 10 10 10 11 11 12 13 15 16 17 17 17 16 15 13 12 10 8 7 6 5 3 2 2 4
4 4 3 1 1 2 1 2 4 5 6 6 6 5 6 6 3 1 3 5 6 7 7 8 8 8 9 9 10 10 11 12 13 14 15 16 16 16 15 13 12 10 8 7 6 5 4 3 4
5 5 4 2 3 2 1 2 3 4 5 5 4 4 5 6 3 1 1 4 4 5 6 6 7 7 7 7 7 8 8 9 10 11 13 14 15 15 14 14 13 12 11 9 7 7 6 6 5
6 6 4 1 1 1 1 1 2 3 3 4 4 3 3 4 3 1 1 3 3 4 4 5 5 6 6 5 5 5 5 5 6 7 9 11 12 13 13 13 13 13 12 11 10 9 9 9 8
4 2 1 2 3 3 2 2 2 4 4 4 4 3 3 4 4 2 1 2 3 2 2 3 4 5 5 5 4 3 2 0 2 3 4 6 8 9 11 11 11 11 12 12 11 11 11 10 10
3 2 2 2 1 2 2 2 3 4 5 4 4 4 4 5 5 4 3 2 2 2 2 2 3 4 5 5 5 6 5 4 4 4 4 4 4 5 6 8 9 9 10 11 12 12 12 11 11
4 3 4 4 3 2 3 2 2 1 3 2 1 2 3 4 5 5 4 3 1 2 3 3 4 5 5 5 6 7 7 7 7 6 6 6 6 5 4 4 6 7 7 9 10 11 11 11 10
7 6 6 8 7 5 7 7 6 4 2 2 3 2 1 1 3 4 2 2 1 1 2 4 5 6 6 6 7 7 8 8 8 8 8 8 8 7 6 5 5 5 5 5 7 8 9 9 9
11 10 9 9 11 9 9 10 11 10 8 7 7 7 6 4 2 1 0 1 1 1 2 3 4 6 7 7 8 8 9 10 10 9 9 10 9 9 9 8 7 6 5 4 4 5 6 7 8
15 13 12 13 13 12 12 13 13 14 13 11 10 10 10 9 7 6 4 4 4 4 4 4 4 5 6 7 8 9 10 11 11 11 11 12 12 11 11 11 10 8 8 7 6 5 5 5 6
15 14 14 15 14 15 15 16 17 17 18 16 14 13 12 12 12 11 10 8 8 9 9 8 7 7 7 7 7 9 10 12 13 13 14 15 16 16 15 15 14 12 11 10 10 9 8 7 6
15 14 15 17 19 20 20 19 19 20 21 22 20 19 18 17 17 16 15 14 13 12 12 11 10 10 10 9 9 9 11 12 13 14 16 17 19 19 18 18 17 16 15 14 14 13 12 10 9
16 16 16 17 20 22 23 23 22 21 23 24 25 24 23 23 22 20 19 18 17 15 14 13 12 12 12 11 11 12 12 12 13 15 16 18 19 21 21 21 20 19 18 17 17 17 16 14 12
18 19 20 22 23 24 24 24 25 24 24 27 28 29 28 26 26 24 23 21 20 19 17 15 14 14 14 14 14 14 14 14 14 15 16 18 19 21 23 23 22 22 21 20 20 20 19 18 16
22 22 24 25 26 26 26 26 27 27 27 29 31 32 32 31 30 29 27 26 25 23 21 20 19 17 17 17 17 16 17 17 17 17 18 19 20 21 22 24 24 25 25 24 23 23 22 21 20
23 24 26 27 29 29 29 29 29 30 30 31 33 34 35 35 34 33 32 32 31 29 28 26 24 22 21 21 20 20 20 21 21 20 20 21 22 23 23 24 25 25 26 26 25 25 25 25 24
26 27 28 30 30 30 31 31 31 33 33 33 36 37 38 38 37 37 36 35 35 35 34 32 30 28 27 25 24 23 23 24 25 24 24 23 24 25 25 25 25 25 26 26 26 25 25 26 26
26 27 29 30 30 31 32 34 35 37 39 39 40 41 41 40 38 39 39 39 39 39 39 38 36 34 33 31 30 28 27 28 29 29 27 26 27 27 28 28 27 26 26 26 26 25 25 26 27
26 26 27 29 30 31 32 34 36 40 43 44 44 44 45 44 42 41 41 41 41 41 41 41 40 38 37 36 34 33 31 31 32 32 32 30 30 30 30 30 28 27 27 27 27 27 27 27 29
23 22 23 24 26 27 30 32 35 39 42 45 47 48 48 47 43 41 41 42 41 41 42 42 41 40 39 38 36 34 33 33 33 33 33 33 33 32 31 31 30 28 28 28 26 27 27 28 28
20 20 20 21 24 26 29 32 34 38 41 44 46 47 48 48 46 43 42 42 42 42 42 41 40 40 39 38 36 35 34 33 32 32 31 32 32 30 31 32 31 29 29 29 27 26 27 27 27
20 21 22 24 25 27 29 32 33 35 38 41 44 45 46 47 45 43 42 42 41 41 41 41 40 40 39 38 36 34 33 31 31 30 31 31 31 30 31 31 31 31 31 29 27 26 26 26 25
18 20 22 23 24 26 28 31 31 32 33 35 39 42 42 43 43 42 41 41 40 40 40 40 39 39 38 37 35 33 31 30 29 29 29 30 30 32 33 33 34 32 30 28 26 26 25 25 25
17 19 19 19 20 22 24 26 26 26 27 28 31 34 38 38 37 37 37 37 37 38 38 38 38 37 37 36 35 33 31 30 29 28 29 29 31 32 34 33 33 32 29 27 26 25 25 25 26
16 17 17 17 18 18 19 20 22 23 24 24 25 26 29 33 33 32 32 32 33 34 35 36 36 36 36 35 35 34 33 32 31 31 31 32 32 34 35 35 35 32 29 26 25 25 24 25 26
15 14 14 14 15 15 17 18 19 20 21 21 21 21 22 24 26 27 27 28 29 31 33 35 36 36 36 36 36 36 36 35 35 35 36 36 35 34 34 35 34 33 30 27 24 24 24 26 28
13 13 13 13 14 14 14 16 17 19 19 18 17 18 17 14 14 16 18 20 23 27 30 32 34 36 37 37 37 37 38 39 39 40 40 39 37 35 34 33 32 31 29 28 27 26 28 29 30
13 13 13 14 14 14 13 14 14 16 17 17 17 17 15 13 9 7 9 12 16 20 23 27 30 33 34 35 37 38 39 40 41 41 41 39 38 36 33 33 32 31 32 33 32 30 31 32 32
15 14 13 13 13 13 13 15 17 19 20 19 18 18 16 14 11 6 3 6 9 12 14 17 21 25 28 30 32 34 35 36 36 36 35 34 33 32 31 31 31 31 32 32 32 32 33 34 34
17 16 15 15 14 14 14 17 20 20 20 21 21 20 19 17 15 13 10 6 2 1 2 4 7 10 14 17 19 21 22 23 24 25 25 26 26 27 27 27 26 26 26 26 27 28 29 30 31

GEFSSGP_500_meanwind_024.txt.gz
Wind_Speed
6 6 6 7 7 8 9 9 9 9 9 8 7 7 7 6 5 5 5 6 8 8 8 8 9 9 11 13 15 16 16 17 17 18 18 18 18 17 16 14 12 10 9 8 6 4 3 2 2
6 6 5 6 6 7 7 7 8 8 8 7 7 7 7 7 5 4 4 5 6 7 6 6 7 7 8 10 11 13 14 15 15 16 16 17 17 17 17 16 15 13 11 10 8 7 5 3 2
5 5 6 7 7 6 5 5 5 6 6 6 6 6 6 7 5 3 3 3 5 5 5 4 4 5 6 7 8 10 11 12 13 13 14 15 16 16 16 17 16 16 14 12 10 9 7 4 3
3 4 6 7 7 6 5 4 3 4 4 5 5 6 6 7 5 3 3 3 4 4 4 3 2 2 3 4 5 6 8 9 10 10 11 11 13 14 14 15 16 16 16 14 12 10 9 7 5
1 2 4 5 5 6 5 4 3 3 5 5 5 5 6 6 5 2 3 4 4 4 3 2 2 1 1 0 1 2 4 5 7 7 8 8 9 10 11 12 14 14 15 14 14 12 11 9 8
2 2 2 4 4 5 5 5 3 3 3 4 4 5 6 6 4 2 2 3 4 4 3 3 2 2 3 2 3 3 3 4 5 5 6 6 6 6 8 9 10 11 12 13 13 12 12 11 9
6 6 6 6 6 6 5 4 2 1 1 2 4 4 4 4 4 2 0 2 3 4 4 4 4 4 4 5 5 5 5 5 5 5 5 5 5 5 5 6 7 8 8 9 10 11 11 10 9
8 8 8 9 8 7 7 5 3 3 3 4 5 6 5 4 3 3 2 2 3 4 5 5 6 6 6 7 7 7 7 7 7 7 7 6 6 5 5 4 5 5 5 6 6 7 8 8 7
9 10 10 10 11 11 11 9 7 7 7 7 8 9 9 8 7 5 5 4 4 5 5 6 6 7 8 8 9 9 9 9 9 9 9 8 8 7 6 5 5 5 5 4 4 4 4 4 5
10 10 11 12 13 15 15 14 13 12 11 11 10 11 12 12 11 10 10 9 8 7 7 7 7 8 9 9 10 10 11 11 11 11 11 10 10 10 10 9 8 7 7 6 6 4 4 4 4
10 11 13 15 17 18 18 18 17 18 17 17 16 15 14 14 14 14 14 14 14 12 11 11 10 10 11 11 11 11 12 12 12 12 13 13 13 13 13 13 12 11 10 9 8 7 6 6 6
13 14 15 18 19 21 22 22 22 22 22 22 21 19 18 18 18 18 18 18 18 17 16 16 15 14 14 14 13 13 13 13 13 14 14 15 15 15 15 16 15 14 13 12 11 10 9 9 9
17 17 18 20 22 23 24 25 25 26 26 25 24 23 21 21 21 22 23 22 22 21 20 20 19 19 18 17 16 16 16 15 15 15 16 16 16 16 17 18 18 18 17 16 15 14 13 13 12
20 21 22 23 24 26 27 28 29 29 28 28 28 27 26 26 26 26 26 26 26 25 25 24 23 23 23 22 21 20 19 18 18 17 17 17 18 18 19 19 20 20 20 19 19 19 17 16 16
24 25 26 25 26 28 29 31 31 32 32 31 32 32 31 31 31 31 31 31 30 30 30 29 28 27 26 25 25 25 24 23 21 20 20 20 20 20 21 21 22 22 22 22 22 22 21 20 20
26 27 28 28 29 30 32 33 34 35 35 35 36 36 36 36 36 37 36 36 36 36 35 34 34 33 31 29 28 27 27 26 26 24 23 23 22 23 24 24 25 25 25 25 25 25 24 23 22
27 28 29 30 31 33 34 35 36 36 36 36 37 38 39 40 40 41 42 42 41 41 40 39 39 38 37 35 34 32 30 29 28 28 26 26 25 26 27 28 28 28 28 28 28 27 26 25 23
28 29 30 30 31 32 33 34 34 34 35 35 36 38 40 41 43 44 46 47 46 45 45 44 43 42 41 40 39 37 35 34 31 30 28 29 29 29 30 30 31 31 31 30 30 30 29 28 26
26 26 27 27 27 28 29 30 31 32 33 34 35 37 39 41 43 45 47 49 49 49 49 48 47 47 46 44 43 41 39 38 37 35 34 33 32 32 33 33 33 33 34 33 32 31 31 30 29
22 22 23 24 24 25 27 28 30 31 32 34 36 39 41 42 44 45 48 50 51 51 51 52 51 49 48 47 46 45 43 41 40 39 38 37 36 35 35 35 36 35 35 35 34 33 32 32 31
19 21 21 22 23 24 26 27 28 30 33 35 38 40 42 42 43 45 47 48 49 50 51 51 51 51 50 49 47 46 44 43 42 42 42 41 40 39 38 36 35 35 34 34 34 35 34 32 32
18 19 20 21 23 25 25 27 26 29 32 34 37 39 40 40 40 41 44 45 46 47 49 49 49 49 49 48 47 46 44 43 43 43 43 43 43 42 40 39 37 36 34 32 33 33 33 34 33
17 18 19 20 21 22 22 24 25 26 28 31 33 34 34 35 35 36 37 38 39 41 42 43 44 44 44 45 45 44 43 42 42 42 42 42 42 42 41 39 37 34 32 29 29 29 29 30 33
15 16 17 18 19 19 20 22 22 22 23 25 26 28 29 29 29 30 30 30 30 30 31 33 35 37 39 40 41 42 41 40 39 39 39 39 39 39 38 35 33 31 28 27 27 27 27 28 31
14 15 15 15 15 16 17 18 19 19 21 22 22 22 22 23 24 24 23 21 21 21 21 23 26 29 32 34 36 37 37 37 37 36 35 35 34 34 33 32 31 30 30 29 29 28 28 29 31
12 12 12 13 13 13 14 15 17 18 20 21 22 21 20 20 20 18 16 14 13 13 13 14 17 21 25 28 30 31 32 32 32 32 31 31 32 32 32 31 31 32 32 32 32 30 30 31 32
10 10 10 10 11 11 12 14 16 18 19 20 21 21 20 19 19 18 15 13 10 8 8 8 10 14 17 20 22 24 26 27 27 28 29 30 31 32 33 34 35 36 36 36 35 33 32 32 32
10 10 9 8 9 10 12 14 16 17 18 19 20 21 21 21 22 19 15 12 11 8 6 6 6 7 9 12 16 19 21 22 23 25 27 29 31 33 34 36 37 38 37 37 36 35 34 33 33
11 10 9 8 9 11 13 15 16 16 18 19 20 21 21 21 22 20 18 15 13 11 9 8 6 4 2 4 7 10 12 15 18 20 22 25 28 30 31 32 33 34 34 34 34 34 33 33 33
13 12 11 10 12 13 14 15 16 17 19 20 21 21 21 21 21 21 20 18 16 15 14 12 10 9 8 6 3 1 2 4 7 10 13 15 17 19 21 23 24 25 26 27 28 29 30 31 32

GEFSSGP_500_meanwind_030.txt.gz
Wind_Speed
8 9 9 9 8 8 7 6 7 8 8 7 6 6 5 5 5 5 6 6 7 8 9 10 11 11 11 12 12 13 14 15 16 16 17 17 17 16 15 14 12 11 9 7 5 3 2 3 5
8 9 9 8 8 7 5 6 7 7 7 6 6 5 5 4 5 5 6 5 6 7 8 9 9 9 9 9 10 10 11 12 13 14 15 15 16 16 16 15 14 13 11 10 8 6 4 3 3
8 9 10 9 8 6 5 5 6 6 6 6 5 5 5 4 4 5 5 5 5 6 7 7 8 8 7 7 7 7 7 8 9 10 11 13 14 15 15 15 15 14 14 12 11 9 7 6 5
7 7 8 9 8 6 5 5 5 5 5 5 5 5 4 4 4 5 6 6 6 6 6 7 7 7 6 6 5 4 4 4 5 6 7 8 10 11 13 13 14 14 15 14 13 12 11 9 8
4 5 6 6 6 5 4 4 4 4 4 5 4 4 4 4 3 4 6 6 6 6 6 7 7 7 7 6 5 4 3 1 1 1 2 4 5 7 9 10 12 12 13 14 14 13 12 11 10
2 2 3 3 3 3 3 2 2 2 2 3 3 3 3 3 2 2 4 6 7 7 7 7 8 8 8 8 8 7 6 5 4 3 1 1 2 3 5 6 8 9 10 11 12 13 12 12 10
1 1 1 1 1 0 1 2 2 2 2 2 3 3 3 3 2 1 3 6 8 9 9 10 9 10 10 10 10 10 9 8 7 6 5 3 2 1 2 3 4 5 6 7 8 10 10 10 10
4 4 4 5 5 4 4 4 4 5 5 5 5 6 5 5 5 5 5 6 8 10 11 12 12 13 13 13 13 12 12 11 10 9 8 6 5 4 3 2 2 2 3 3 4 5 7 8 8
7 7 8 8 8 7 7 6 7 7 7 8 8 9 9 9 9 9 9 9 9 10 11 12 14 15 15 16 16 15 15 14 13 12 11 9 8 7 6 5 4 3 2 2 2 1 2 3 5
9 10 10 11 11 10 10 10 11 11 12 12 12 12 13 13 13 13 13 13 13 13 14 14 15 16 17 17 17 17 17 17 16 15 14 13 11 10 9 8 7 6 5 5 4 4 3 2 1
11 12 13 13 14 13 13 14 14 15 15 16 16 16 16 16 16 16 17 17 17 18 18 18 19 19 19 19 19 19 19 19 19 18 17 16 15 14 12 12 11 10 9 8 8 7 7 6 5
14 15 16 17 17 17 17 17 18 19 19 20 20 20 19 19 19 19 20 20 21 21 22 23 24 25 25 24 23 22 21 21 21 20 19 18 17 16 15 14 13 13 12 12 11 11 10 10 9
17 18 20 21 21 22 22 22 22 23 24 24 24 23 23 23 23 24 24 24 25 25 26 26 27 27 29 29 28 28 26 25 24 23 22 21 20 19 18 17 16 15 14 14 14 14 14 13 13
21 22 23 24 24 25 26 26 26 26 27 27 28 28 28 28 28 29 29 30 30 30 30 31 32 31 30 30 31 32 33 31 30 28 26 25 23 22 21 20 18 17 16 15 16 16 16 16 16
24 25 26 26 27 27 28 28 28 28 29 30 30 31 31 33 34 34 35 35 36 36 36 37 37 37 37 36 35 34 34 36 35 33 32 30 28 26 24 22 21 19 18 17 17 17 17 18 18
26 27 28 28 28 28 29 29 29 29 30 31 32 33 34 36 37 38 39 40 41 41 42 43 43 43 43 42 41 40 38 37 37 36 35 34 34 31 28 26 24 22 20 19 19 19 20 20 20
26 27 29 29 28 28 29 29 29 30 30 31 32 34 35 36 37 39 40 41 43 44 45 46 47 47 47 47 47 46 44 42 40 38 38 37 36 35 33 31 27 25 22 21 21 21 22 22 21
26 27 28 28 27 27 28 28 28 28 29 30 31 32 34 35 37 38 40 41 43 44 46 48 49 50 50 51 51 51 49 48 45 43 40 39 37 35 33 31 30 27 25 24 24 23 24 24 24
26 26 27 26 26 26 27 28 27 28 28 29 30 32 33 34 35 37 38 40 42 44 46 48 50 51 52 53 53 54 53 52 51 48 44 41 38 36 33 32 32 30 27 26 26 25 26 26 26
24 25 25 25 25 26 26 27 27 27 29 30 30 31 32 34 35 37 39 40 41 42 44 46 48 51 52 53 54 55 55 54 54 52 50 45 42 38 35 33 32 32 30 29 28 26 26 28 28
23 24 24 24 24 24 25 25 26 26 28 28 29 29 31 32 33 34 35 36 38 40 42 44 45 47 49 51 52 53 54 55 54 53 51 48 46 42 38 35 34 33 31 30 29 29 28 28 28
21 21 22 22 22 22 23 25 23 25 25 26 27 27 29 30 30 30 31 32 34 36 37 38 40 42 44 46 47 48 50 51 51 50 50 49 47 44 41 39 37 36 34 32 31 30 30 29 29
18 18 18 19 19 20 20 21 20 21 22 23 24 26 26 27 27 27 28 28 28 27 27 28 30 32 34 37 39 40 42 45 46 46 47 47 46 44 42 41 40 38 37 36 34 31 30 29 29
15 16 16 17 17 18 17 17 17 18 19 20 22 23 23 23 24 23 23 22 21 20 20 20 22 23 25 28 30 33 35 38 40 42 43 44 44 43 41 40 39 39 38 37 36 33 31 30 28
13 14 14 14 14 14 14 15 16 15 16 16 18 19 19 19 20 20 19 18 16 15 15 15 16 16 16 18 21 25 28 32 35 37 39 40 41 42 41 40 39 38 38 37 35 34 32 30 28
11 12 12 12 12 12 13 13 13 13 14 15 16 17 17 19 20 20 18 16 14 14 13 13 12 11 11 10 12 17 20 24 28 31 34 35 37 38 39 39 38 37 37 36 35 34 32 31 29
12 11 12 11 11 11 11 12 12 12 14 15 17 17 18 19 19 18 16 15 13 14 13 12 11 9 8 7 6 8 11 14 19 23 26 28 30 32 33 34 34 34 35 34 34 33 33 33 32
13 12 12 12 11 11 12 12 13 14 15 16 16 16 17 17 18 17 16 16 15 15 14 14 13 12 10 7 5 3 4 8 12 15 19 22 24 26 28 30 32 33 33 33 34 34 35 36 35
14 14 14 13 12 12 12 12 13 14 14 15 15 16 16 16 17 18 18 18 18 17 17 17 15 15 14 11 7 5 1 4 7 10 14 17 19 22 24 27 29 31 33 34 35 36 37 38 39
15 15 15 15 14 13 13 13 14 14 14 14 15 15 15 16 17 18 19 19 20 20 20 20 18 18 16 14 12 9 6 2 1 5 8 12 15 18 21 24 26 29 32 34 36 37 38 39 40

GEFSSGP_500_meanwind_036.txt.gz
Wind_Speed
7 7 8 6 4 6 6 5 4 2 2 1 2 3 1 1 1 2 2 3 4 5 5 6 6 7 7 8 8 9 10 10 11 11 11 11 11 10 8 7 5 4 3 2 2 3 4 7 9
6 5 7 5 5 6 5 5 3 3 3 2 3 4 3 3 2 2 3 3 3 4 5 5 5 5 5 5 5 6 7 8 8 9 10 10 10 10 9 8 7 6 5 4 3 2 2 3 5
5 5 6 5 5 5 5 5 4 3 3 3 3 3 3 3 2 3 3 3 4 4 5 6 6 5 4 3 3 3 3 4 5 6 7 8 8 9 9 9 9 8 7 7 6 5 5 4 4
4 4 4 6 5 5 4 4 4 4 4 4 4 4 3 3 3 4 4 4 5 5 6 6 6 6 6 5 4 2 0 1 2 2 3 4 5 6 7 8 9 9 9 9 9 8 8 7 6
3 3 5 4 6 5 5 5 5 5 5 5 4 5 4 4 4 5 6 6 6 6 7 7 8 8 8 7 7 6 5 4 3 2 2 1 1 2 4 5 6 8 9 10 10 10 10 9 8
2 3 3 3 4 4 4 5 5 6 7 7 6 6 5 5 5 5 7 8 8 8 9 9 10 10 10 10 10 9 9 8 6 5 4 3 3 2 1 1 3 4 6 8 9 10 10 10 9
1 1 4 5 5 5 7 7 6 8 8 9 8 7 7 7 7 7 8 9 10 10 10 11 11 12 12 12 13 13 12 11 10 9 8 7 6 5 4 3 2 1 2 4 6 8 9 9 9
4 3 5 8 7 7 8 10 10 10 10 11 10 10 9 9 10 10 11 12 12 12 12 13 13 14 14 14 15 15 15 14 13 13 11 10 9 8 8 7 6 5 3 2 3 4 5 6 7
5 4 6 10 9 11 12 13 13 13 13 13 14 14 13 13 14 14 15 15 15 16 16 16 16 16 16 17 17 17 17 17 17 16 15 14 13 12 11 10 9 8 7 6 4 3 3 3 4
8 6 9 12 14 14 14 15 16 15 16 16 17 17 18 18 18 18 18 19 19 19 20 20 20 20 19 19 19 20 20 20 20 20 20 19 17 15 14 13 12 11 11 10 8 7 6 5 4
11 10 11 15 17 17 16 17 18 18 19 20 21 21 21 22 22 22 22 23 23 23 23 23 24 24 24 23 22 22 22 22 23 23 24 23 21 19 17 16 15 15 14 14 13 11 10 9 7
14 15 16 18 20 21 20 21 22 22 23 24 25 25 25 25 26 26 26 26 26 26 27 27 28 28 28 27 28 27 26 26 27 27 27 26 24 22 20 19 18 18 18 17 16 15 14 12 11
17 19 20 22 23 24 25 25 26 27 28 28 28 28 29 29 30 30 31 31 31 31 31 31 31 32 32 32 31 30 30 29 30 30 29 29 28 25 24 22 21 21 21 20 20 19 17 16 15
21 23 24 26 27 28 28 28 29 30 31 31 31 31 32 32 33 34 35 35 36 36 36 36 36 37 37 36 36 36 35 34 33 32 32 32 31 29 27 26 25 24 24 23 22 21 20 20 18
24 26 28 29 29 29 30 30 30 32 32 33 34 34 34 35 36 37 37 38 39 40 40 40 41 42 42 42 42 41 41 40 38 37 37 35 34 32 32 30 28 27 27 26 25 24 23 22 20
25 27 28 28 29 29 31 32 31 32 34 34 35 36 35 36 37 37 38 39 40 41 41 42 43 44 45 46 46 46 45 45 44 43 41 39 37 34 33 32 32 30 29 28 28 27 25 24 22
25 22 25 30 31 32 32 33 32 33 33 34 34 34 35 35 35 35 35 36 37 38 39 41 42 43 44 45 47 47 48 48 48 47 45 44 42 38 36 34 34 35 33 31 30 29 28 26 24
24 24 25 33 35 34 34 33 30 30 31 32 32 32 33 34 34 34 34 34 35 36 37 38 39 40 42 43 45 46 48 48 49 49 48 47 46 43 40 37 36 36 36 34 32 31 31 29 26
25 26 27 34 33 31 32 32 30 28 29 29 31 31 32 33 33 34 34 35 36 36 38 39 39 40 41 42 43 45 46 48 48 49 49 49 49 48 46 43 40 38 38 36 35 34 33 32 29
25 26 26 31 28 28 30 30 29 28 28 29 30 31 31 31 32 32 33 34 34 35 36 37 37 38 39 40 42 44 45 47 49 50 50 50 50 50 49 47 44 42 40 38 37 36 34 33 31
24 24 24 26 28 27 28 29 28 24 24 26 27 29 29 29 29 29 30 30 31 32 32 33 33 34 35 37 39 40 42 45 47 49 50 51 51 51 50 48 46 45 43 39 36 35 34 33 31
20 20 21 23 24 26 25 26 27 23 23 24 24 24 25 25 25 25 26 27 27 27 27 28 28 29 31 32 34 36 38 40 43 46 48 48 49 49 49 47 47 45 43 40 39 35 33 32 31
18 18 19 20 20 20 21 23 26 23 23 23 22 23 24 24 24 24 24 24 24 23 24 24 24 25 26 28 30 31 33 34 36 39 41 43 44 45 45 46 45 45 43 42 41 39 35 32 31
16 17 17 16 16 17 17 20 24 22 22 22 22 23 24 24 23 23 22 21 20 19 19 19 19 20 22 23 24 25 26 27 29 31 33 36 38 39 40 42 42 42 41 40 40 38 36 34 32
14 15 16 16 17 17 18 19 20 20 21 21 21 22 22 21 21 19 18 17 17 17 16 15 16 17 18 18 18 19 19 20 21 23 25 28 31 33 35 37 39 38 38 38 38 36 35 34 33
14 15 14 11 9 15 17 18 19 19 19 20 20 20 19 18 18 18 17 16 16 16 16 16 15 16 16 17 16 15 14 14 15 16 18 21 25 28 31 33 36 36 36 37 37 35 34 34 33
14 14 14 12 11 10 16 18 16 17 18 19 19 18 17 17 18 18 18 18 18 18 17 17 17 17 17 17 16 15 14 12 11 11 13 15 18 21 24 28 32 35 35 35 35 35 34 34 34
14 15 15 14 14 11 13 18 19 19 20 19 17 16 16 17 18 19 19 19 20 20 20 19 19 19 18 18 17 15 14 12 11 10 9 10 12 15 19 23 26 29 31 32 33 34 34 34 33
15 16 16 16 16 15 15 17 18 18 18 17 16 16 16 17 18 19 19 20 20 21 21 21 21 21 20 19 18 17 15 14 12 11 9 7 7 9 12 16 20 23 25 28 30 33 33 34 33
16 17 17 17 17 16 16 16 16 16 16 16 16 16 16 17 18 19 19 20 21 21 22 22 23 22 22 21 19 18 16 15 13 12 10 9 8 7 8 10 13 17 20 23 26 28 31 32 33

GEFSSGP_500_meanwind_042.txt.gz
Wind_Speed
9 7 7 7 6 5 5 6 8 9 7 7 6 6 6 5 3 2 1 1 1 1 1 2 2 3 4 5 6 6 6 7 7 7 7 7 7 6 6 4 3 1 2 4 7 9 11 13 15
8 6 5 6 6 5 6 8 9 8 8 7 7 7 6 5 3 2 1 0 1 1 2 2 2 2 2 3 3 3 4 4 5 5 6 6 6 6 6 5 4 3 1 2 4 5 7 10 11
6 4 5 6 6 6 8 9 10 9 9 8 7 7 6 4 3 2 2 2 2 2 3 4 4 4 3 3 2 2 1 1 2 3 3 3 4 4 5 5 5 4 3 1 1 3 5 6 6
4 3 5 6 6 7 8 9 9 9 9 8 7 7 6 5 4 3 4 3 4 4 4 5 6 6 6 6 6 5 3 2 2 2 2 2 2 2 3 3 4 4 4 3 2 1 2 3 4
2 2 4 6 7 7 7 7 9 9 9 9 9 7 6 5 4 4 5 5 5 5 6 6 7 8 9 9 9 9 8 7 6 5 4 4 3 2 2 1 2 3 4 4 4 3 2 2 3
3 4 5 6 6 5 5 6 7 8 9 10 10 9 8 6 5 5 6 7 7 7 8 9 9 10 11 12 12 12 12 11 10 9 8 7 7 6 4 3 2 0 2 2 3 3 3 4 4
5 6 6 7 6 4 6 7 8 8 9 10 11 11 10 9 8 7 7 8 9 10 10 11 12 13 14 15 15 15 15 15 14 13 12 11 10 9 8 7 5 4 2 1 1 2 3 4 5
7 6 7 8 8 7 9 9 12 12 12 12 13 13 12 12 12 12 11 11 12 13 14 14 15 16 16 18 18 18 18 18 17 16 15 14 13 12 11 11 9 8 6 5 4 3 3 3 4
8 8 9 10 11 11 12 12 14 16 16 16 16 16 16 16 16 16 16 16 16 16 16 17 18 18 19 20 20 21 21 20 20 20 18 17 17 16 15 14 13 12 11 9 8 7 5 4 4
10 10 11 12 14 16 16 16 17 18 19 20 20 20 20 21 21 21 22 22 22 22 21 21 21 22 22 23 23 22 22 22 22 21 21 20 20 19 19 18 16 16 15 13 12 11 9 8 7
11 12 13 14 16 18 19 20 20 22 23 24 24 25 25 25 26 26 27 27 27 27 27 28 27 26 26 26 26 25 24 24 23 23 23 23 23 22 22 22 21 20 19 18 16 15 13 12 11
14 15 16 17 19 20 22 23 23 24 25 26 27 28 28 29 29 30 30 31 31 32 32 33 33 32 32 31 30 29 27 26 26 26 25 25 26 25 25 25 24 24 24 22 21 19 18 16 14
17 18 19 20 22 23 24 25 25 25 26 28 29 29 30 31 31 32 33 34 34 35 35 36 37 37 36 36 35 34 32 31 30 28 27 27 27 26 26 27 26 26 27 26 25 23 21 20 19
19 20 21 22 23 24 24 25 25 26 28 29 30 30 31 31 31 32 33 34 35 36 36 37 38 39 39 39 39 38 37 36 36 34 32 30 29 29 28 27 26 27 28 29 28 26 25 24 22
20 21 22 23 23 23 24 25 26 28 29 30 31 31 30 30 31 31 32 33 34 35 36 37 37 38 38 39 40 40 39 39 38 38 37 36 35 33 32 30 29 29 29 30 30 30 29 27 26
22 22 23 23 24 24 26 26 26 28 29 30 31 30 30 29 29 30 30 31 32 33 34 35 35 35 36 37 38 39 39 39 39 40 40 39 38 37 35 33 32 31 30 30 31 32 32 30 28
22 22 23 24 25 25 25 26 26 27 29 30 29 29 29 28 28 28 29 30 31 32 33 34 34 34 34 35 35 36 37 38 38 39 40 40 40 40 39 37 35 33 32 32 32 32 32 31 31
21 23 24 25 26 26 26 26 26 26 27 27 27 27 27 27 28 29 29 30 31 31 32 32 34 35 35 36 36 37 37 38 38 37 38 39 39 40 40 40 39 37 35 34 34 33 33 33 32
20 22 24 25 25 26 26 25 24 24 23 24 24 25 25 26 27 28 28 28 28 29 30 30 31 32 32 33 34 35 37 38 38 38 37 38 38 39 40 40 40 40 39 37 35 34 34 33 33
18 20 22 24 24 25 24 22 21 19 19 20 21 22 23 24 25 25 26 26 27 27 27 26 26 27 28 30 31 32 34 35 35 36 37 38 38 38 39 40 40 41 40 39 38 37 36 33 32
16 19 21 22 23 23 21 19 16 15 16 17 18 20 21 22 23 23 24 24 23 23 23 22 23 23 24 25 26 27 29 31 32 33 33 34 36 37 38 39 40 41 41 41 41 39 39 36 34
16 17 19 20 20 19 19 16 15 15 16 16 18 19 20 21 21 21 21 20 20 19 18 18 18 19 19 20 21 22 23 25 27 29 31 33 34 35 37 38 40 41 42 42 42 43 41 39 37
13 15 16 17 17 17 15 14 14 16 17 18 18 19 19 20 19 19 20 19 17 16 16 15 15 16 17 17 17 18 19 20 22 25 28 31 32 34 36 37 39 41 41 42 42 43 43 42 40
12 14 15 15 15 14 13 13 14 16 18 18 19 19 18 19 19 19 19 18 17 16 16 16 16 16 16 16 15 15 15 16 18 19 21 24 27 30 33 35 36 39 40 41 42 43 43 42 42
11 13 13 14 13 13 13 13 14 16 17 18 18 17 17 18 18 19 18 18 18 18 17 17 17 17 17 16 14 14 14 14 14 14 16 18 20 23 26 29 32 35 38 40 41 42 43 42 42
10 12 13 14 14 13 13 13 14 15 16 16 16 16 17 17 18 18 18 19 19 19 19 19 19 18 18 17 16 14 14 13 12 12 12 13 15 17 20 24 26 29 33 36 38 41 41 41 40
11 13 14 15 15 15 13 13 13 13 14 14 15 16 17 18 18 18 19 20 20 20 21 21 21 21 20 18 17 16 14 13 12 11 10 10 9 11 15 17 21 23 26 30 34 38 40 41 41
12 13 14 15 15 15 14 14 14 14 13 13 15 16 17 18 18 18 18 19 20 21 21 21 22 22 21 20 19 18 16 15 13 12 11 10 9 7 8 11 14 18 22 25 29 34 37 39 41
11 13 14 15 15 15 14 15 15 14 14 14 15 16 17 18 18 18 18 18 19 21 22 21 22 22 22 21 21 20 18 17 16 14 12 11 10 9 7 7 9 12 16 19 23 29 34 36 38
11 12 13 14 15 15 14 14 14 14 14 15 16 17 17 17 17 17 17 18 19 20 21 22 22 23 22 21 21 20 19 18 17 16 14 12 11 10 9 7 7 7 11 15 19 22 27 31 34

GEFSSGP_500_meanwind_048.txt.gz
Wind_Speed
7 8 10 10 8 7 7 6 7 8 8 8 7 6 5 5 4 3 2 2 2 2 2 3 2 1 1 1 3 4 5 5 6 6 6 6 6 5 5 4 3 2 2 3 5 7 9 11 13
6 8 9 10 8 7 7 6 7 8 8 8 7 7 6 6 5 3 3 3 4 3 4 5 4 4 3 2 1 1 2 2 3 4 4 4 4 4 4 4 4 3 2 3 4 5 6 8 10
6 8 9 9 7 6 5 5 6 6 7 8 8 8 7 7 6 5 5 5 6 6 6 6 6 6 6 5 5 3 2 1 1 1 1 2 2 3 3 3 3 3 3 3 3 3 4 5 7
6 8 9 9 7 6 4 5 5 6 8 9 9 9 9 8 7 7 7 8 8 8 9 9 9 9 9 9 8 7 6 5 4 3 3 2 2 2 2 2 2 3 3 3 3 3 3 3 4
6 7 8 8 6 7 4 5 6 8 9 10 10 10 10 9 9 9 9 10 11 11 11 11 11 11 11 11 11 11 10 9 8 7 6 6 5 4 3 2 2 2 2 2 2 2 2 1 2
5 7 8 7 7 7 7 8 8 8 9 10 11 11 11 11 11 11 12 12 13 13 12 12 12 13 13 14 14 14 14 13 13 12 11 10 9 8 7 5 4 3 2 2 2 2 2 1 1
6 8 8 7 8 9 11 11 11 11 12 11 12 12 13 14 14 14 14 14 14 14 14 14 14 15 16 17 17 17 17 17 17 16 16 15 13 12 10 9 8 7 5 4 3 2 1 1 0
7 8 9 10 11 13 14 15 15 14 14 14 14 15 15 16 17 17 17 16 17 17 16 17 17 18 18 18 19 20 20 20 20 20 20 19 18 16 14 13 11 10 9 7 6 4 3 2 2
8 10 11 13 15 16 16 17 18 18 18 18 18 19 20 20 21 21 21 21 21 21 20 21 21 20 20 20 21 21 21 22 22 22 23 23 21 20 19 17 15 14 13 11 10 8 6 5 4
10 12 13 15 17 18 19 20 21 21 22 22 23 23 24 24 25 25 26 27 27 27 27 27 27 26 25 24 24 24 24 24 24 24 25 24 24 23 22 21 19 17 16 15 14 12 10 9 8
12 14 16 18 19 20 21 22 23 24 25 25 26 26 26 27 27 28 29 30 31 32 33 33 33 32 32 32 31 30 29 28 27 26 25 25 25 26 25 24 22 21 19 18 17 16 15 13 12
14 16 18 19 20 21 23 24 25 26 26 27 28 28 29 29 30 31 32 33 34 35 36 36 36 36 37 37 37 36 35 33 32 31 30 27 26 26 26 26 24 24 23 22 21 20 19 18 16
16 17 19 21 22 23 24 24 25 26 27 29 30 30 31 32 33 33 33 34 34 35 35 36 36 37 37 38 39 39 39 38 37 35 34 32 30 27 27 27 27 27 26 25 24 22 22 22 21
17 19 20 22 22 23 24 25 25 27 29 30 31 31 31 31 31 31 32 33 34 34 34 35 35 35 35 36 37 38 40 40 40 40 39 37 35 33 30 28 28 28 28 27 26 25 25 26 25
18 20 21 22 23 24 25 25 26 28 29 29 29 29 28 28 28 28 29 30 31 32 32 33 33 33 33 34 34 35 37 39 40 41 42 41 40 39 36 34 32 31 29 27 26 27 26 26 27
19 20 22 23 23 24 25 25 26 27 28 28 27 27 27 27 27 27 27 27 28 29 31 32 32 32 32 33 34 34 35 35 36 38 40 42 43 43 41 40 38 36 34 31 29 29 29 27 29
20 21 22 23 23 23 23 24 25 25 25 25 26 26 25 26 26 26 26 27 27 28 29 29 30 30 31 31 32 32 33 34 34 35 37 38 40 42 43 42 42 40 38 36 34 32 31 30 30
20 21 21 22 22 22 22 23 23 23 23 24 24 25 26 25 25 25 25 26 26 26 26 26 26 27 27 28 29 29 31 32 32 33 35 36 37 39 40 42 43 43 41 39 38 36 33 31 30
19 20 21 21 21 21 21 21 21 21 21 22 23 23 23 23 23 23 23 23 23 22 21 21 21 22 23 24 25 26 27 29 30 32 33 35 36 37 39 40 41 43 43 42 41 39 37 34 32
18 19 20 20 20 20 20 19 19 19 19 20 20 20 20 20 20 21 21 20 20 19 19 18 18 18 18 19 20 22 23 25 26 28 31 33 35 37 38 39 41 42 42 43 43 42 40 38 37
16 17 18 18 18 18 18 16 17 17 17 17 17 17 17 18 19 19 20 19 19 19 18 18 17 17 17 17 17 18 19 20 22 24 26 29 32 34 36 38 40 41 41 42 44 45 44 42 41
14 15 16 17 17 16 15 14 14 14 14 14 14 15 16 17 18 19 19 19 19 19 19 18 18 17 17 16 16 15 15 16 17 19 21 23 26 29 32 35 38 40 41 42 43 44 44 44 43
11 13 14 14 14 13 13 12 12 12 11 12 13 14 16 16 18 19 19 19 20 20 20 19 19 18 18 17 16 15 14 14 14 15 16 18 21 24 27 30 34 37 40 41 43 44 44 45 44
9 11 11 12 12 12 12 12 11 10 10 12 13 15 16 17 17 18 19 20 20 21 21 21 20 19 19 18 16 15 15 14 13 13 13 15 16 19 22 25 29 33 36 39 41 43 44 44 45
8 9 10 11 12 11 12 11 11 10 11 13 14 15 16 17 18 18 19 20 21 22 22 22 21 20 20 18 17 16 15 14 13 13 12 12 14 15 18 21 25 29 33 37 40 42 43 44 45
6 8 10 11 11 11 11 11 11 11 12 13 14 15 16 17 17 17 18 19 20 22 22 22 22 21 21 20 19 18 16 15 14 13 12 12 12 13 15 18 21 24 28 32 36 40 42 44 45
6 8 9 10 10 11 11 11 12 12 13 14 15 16 17 17 17 17 18 19 20 21 22 22 22 22 21 20 19 19 17 16 15 14 13 12 12 12 13 14 17 20 23 27 31 35 38 41 43
5 6 8 8 9 10 10 11 11 12 13 14 15 16 17 17 17 17 19 20 20 21 22 22 23 23 22 21 20 19 18 17 16 15 14 13 12 12 13 13 14 16 18 20 24 29 32 36 39
4 5 6 8 9 9 10 11 11 12 13 14 15 16 16 16 17 18 18 19 20 21 22 23 23 23 23 23 22 21 19 18 17 16 15 14 13 13 12 13 13 14 15 17 20 24 27 31 35
5 6 7 7 8 9 9 10 11 12 13 14 15 15 16 16 17 17 18 19 20 21 22 23 23 24 24 24 24 23 22 20 19 17 16 15 14 14 14 14 14 14 14 15 17 19 23 27 30

GEFSSGP_500_meanwind_054.txt.gz
Wind_Speed
6 6 6 6 5 6 6 4 4 4 4 3 3 3 3 3 4 6 6 6 7 7 7 8 8 7 8 8 7 7 6 6 6 6 5 5 5 4 4 4 4 4 5 7 8 10 11 13 14
5 6 6 5 5 5 4 3 4 4 3 3 3 3 4 4 5 6 6 7 8 9 10 10 10 10 10 10 9 9 8 7 7 6 6 5 5 4 4 4 4 4 4 5 6 8 9 11 12
3 4 5 4 4 4 3 3 3 4 4 4 4 4 5 5 6 7 7 8 10 11 11 12 12 12 12 12 12 12 11 10 9 8 7 7 6 5 5 4 4 4 3 3 4 5 6 8 10
3 3 4 3 3 3 3 3 4 5 5 6 7 6 6 7 8 9 10 11 11 12 13 13 14 15 14 14 15 15 14 13 12 11 10 9 8 7 7 6 5 4 4 3 3 4 4 6 7
3 3 4 4 3 3 4 5 6 8 8 9 10 10 10 10 10 10 12 12 13 14 14 14 15 16 17 17 17 17 17 17 16 15 13 12 11 10 9 8 7 6 5 4 3 3 3 4 5
4 5 5 5 5 6 7 8 9 10 11 12 13 14 14 14 14 14 15 15 16 16 15 16 17 18 18 20 20 20 20 19 19 18 17 16 14 13 12 10 9 8 7 5 4 4 3 3 3
6 7 7 7 7 9 10 12 12 13 14 15 17 18 19 19 19 19 19 19 19 19 19 18 18 19 18 19 20 21 21 22 22 22 21 20 18 16 15 14 12 11 10 8 7 5 4 4 4
8 9 9 9 10 12 14 15 15 16 18 19 20 21 22 24 24 24 24 24 24 23 23 23 23 21 21 20 21 22 22 22 23 24 23 22 21 20 19 18 16 15 13 12 10 8 7 6 5
10 10 11 12 13 15 16 17 18 20 21 22 23 24 25 26 27 28 28 28 28 29 28 28 29 28 27 26 25 25 24 24 24 24 24 24 22 21 21 20 20 18 17 15 14 12 10 8 7
12 12 14 15 16 17 19 20 21 23 24 25 26 26 27 27 28 29 30 31 32 32 33 34 34 34 34 33 32 32 30 28 27 25 24 25 25 24 23 22 22 22 20 19 17 15 14 12 10
14 15 16 17 18 19 21 22 24 25 26 27 27 28 28 29 29 30 31 32 33 34 34 35 36 36 37 37 38 39 37 35 33 31 29 27 27 26 25 24 25 25 24 22 20 19 18 16 15
15 16 18 19 20 21 23 24 25 26 27 27 28 28 29 29 29 29 30 30 32 33 34 35 36 36 37 38 39 40 41 40 39 37 35 34 33 30 28 27 25 26 27 26 24 22 21 20 19
17 18 19 20 22 23 24 25 26 27 27 27 27 27 27 27 27 27 28 29 30 30 31 32 33 34 35 36 37 38 39 40 41 41 40 38 37 35 34 32 30 28 27 28 27 25 24 23 22
18 19 21 22 23 23 24 25 26 26 26 26 25 25 25 25 25 25 26 27 27 28 29 29 30 30 31 32 33 34 35 37 38 40 41 41 40 39 37 36 34 31 29 28 28 27 26 25 25
19 20 22 22 23 24 24 24 25 25 24 23 23 23 23 22 22 22 23 23 23 24 25 26 27 28 28 28 29 31 32 34 35 36 38 39 41 41 41 40 38 36 33 31 31 29 29 28 27
20 21 22 22 22 23 23 23 23 23 22 21 21 20 20 19 20 20 20 21 21 22 23 23 23 24 25 25 26 27 28 30 32 34 35 36 38 40 41 42 41 40 38 36 34 32 30 30 29
20 21 21 22 21 21 21 21 20 19 19 18 17 17 17 17 18 19 19 20 20 20 20 20 20 20 21 21 22 23 25 27 29 31 33 35 37 38 40 41 42 43 42 40 38 35 33 31 31
20 20 20 20 19 19 18 18 17 16 15 15 15 15 15 16 17 18 19 19 18 18 19 19 18 18 18 18 18 19 21 23 25 28 30 32 34 36 38 40 42 43 43 42 40 38 36 35 33
19 18 18 17 17 16 16 16 14 13 12 12 13 13 15 15 17 18 18 18 18 19 19 19 18 17 16 16 16 17 18 19 21 23 26 29 31 33 35 38 40 42 43 42 42 41 40 39 37
16 15 15 14 14 14 13 13 12 10 10 10 12 13 14 15 16 17 18 19 19 19 19 19 18 17 16 16 16 16 16 16 18 19 21 24 27 29 32 34 37 39 41 42 42 42 42 42 40
13 12 12 12 11 11 11 10 9 8 8 10 12 13 14 15 16 17 18 19 19 20 20 20 19 17 17 16 15 14 13 13 14 16 18 20 23 26 29 32 34 37 39 40 41 41 42 42 42
10 9 9 8 9 9 8 8 7 7 8 10 12 13 13 15 16 16 17 19 20 20 20 20 20 18 17 17 16 15 13 12 12 12 13 16 18 21 24 28 31 34 37 39 40 41 41 42 42
7 6 5 6 6 6 6 6 7 8 9 11 11 12 13 15 15 16 17 19 20 20 20 20 20 20 19 18 17 16 15 13 12 12 11 12 14 16 19 23 27 30 33 37 39 40 41 42 42
3 2 3 5 5 5 5 5 6 7 9 10 11 12 13 14 15 16 18 19 19 20 20 20 20 20 20 19 17 16 15 14 13 12 12 11 11 13 15 17 22 25 29 32 36 38 40 41 42
1 1 3 4 5 5 5 6 6 7 9 9 10 12 13 14 15 16 17 18 19 20 20 21 20 20 21 20 19 18 17 15 15 14 13 12 11 11 12 14 17 20 24 28 32 35 38 40 41
3 3 4 4 4 5 5 6 6 7 9 9 11 12 13 14 15 16 17 18 19 20 20 20 21 21 21 21 20 19 18 17 16 15 14 13 12 11 11 12 14 16 20 23 28 32 35 38 40
4 4 4 4 4 4 5 6 7 8 9 10 11 12 13 14 15 15 16 17 18 19 20 20 21 22 22 22 22 21 20 19 18 17 16 15 13 13 12 12 13 15 17 20 23 27 32 36 39
5 4 4 4 3 4 4 6 7 8 9 10 11 12 13 13 14 15 16 16 17 18 19 20 21 22 22 23 23 23 22 21 20 19 18 17 16 15 14 14 14 15 16 18 20 23 27 30 35
5 5 4 4 4 3 4 5 6 8 9 10 11 11 12 12 13 14 15 16 16 17 19 20 21 22 22 23 23 24 23 22 21 20 19 19 18 17 16 16 16 17 18 19 20 22 24 27 30
6 6 5 5 4 4 4 5 6 7 8 10 11 11 12 12 13 13 14 15 16 17 18 19 21 22 22 23 23 24 24 24 23 22 21 20 20 20 19 19 18 19 19 20 20 22 24 25 28

GEFSSGP_500_meanwind_060.txt.gz
Wind_Speed
5 5 5 4 3 3 4 5 5 6 7 7 7 7 8 8 9 11 12 13 13 12 13 13 14 15 15 14 14 13 13 12 11 11 10 10 9 9 9 9 9 10 11 12 13 14 15 16 16
4 5 4 4 4 3 5 6 6 7 8 9 9 9 9 10 11 12 13 14 14 13 14 15 16 17 17 17 17 16 16 15 14 13 12 12 11 10 9 9 9 9 9 10 10 12 13 13 14
3 4 4 4 5 4 5 6 7 8 9 10 10 11 12 12 13 14 15 16 16 15 16 17 18 18 18 19 20 20 20 19 18 16 15 14 13 12 11 10 10 9 8 8 9 9 10 11 12
4 5 5 6 6 6 7 8 9 10 11 12 13 14 15 15 16 16 18 19 19 19 19 20 19 19 20 20 21 22 23 23 22 20 19 18 16 15 14 12 11 10 9 8 8 8 9 9 10
4 4 6 6 6 8 10 11 12 13 14 16 16 17 17 18 19 20 21 22 22 22 22 22 22 22 22 22 22 22 24 25 25 24 23 21 20 18 17 15 14 12 11 10 8 8 8 8 8
5 5 7 7 9 11 12 13 15 16 18 20 20 20 21 21 22 23 24 25 25 25 25 26 25 25 24 24 24 25 25 25 27 28 26 25 23 21 20 18 17 15 14 12 10 9 8 8 8
7 8 10 12 13 13 14 15 18 20 20 22 23 23 24 24 26 27 27 28 28 29 28 29 28 28 27 26 26 26 26 27 27 29 28 27 26 25 24 23 21 19 17 15 13 11 9 8 8
10 10 10 13 16 15 17 19 20 22 23 24 25 26 26 27 28 29 29 30 30 31 32 31 31 31 31 30 30 29 29 27 27 27 28 29 28 26 26 26 25 23 21 18 16 13 12 10 8
13 11 12 14 16 18 20 22 22 24 25 25 26 27 28 29 30 30 31 32 32 32 33 34 34 34 34 34 33 33 33 32 30 28 28 28 29 28 27 27 26 26 24 22 19 17 15 12 10
15 14 15 17 19 21 22 23 25 26 27 26 26 26 28 29 29 30 31 31 32 32 33 33 34 34 34 35 35 35 35 35 34 33 32 30 28 28 28 28 27 25 25 24 23 20 18 16 13
16 17 19 20 21 23 23 24 25 27 28 27 27 27 27 28 28 29 29 30 30 31 32 32 32 33 33 32 33 34 35 35 35 35 34 33 32 31 29 29 28 27 26 25 25 24 21 19 17
19 19 21 21 22 23 24 25 25 26 27 28 28 27 27 27 27 27 27 27 27 27 28 28 29 29 30 29 29 31 32 32 33 34 35 34 34 32 31 31 30 29 27 25 24 25 24 23 21
17 20 20 21 22 23 24 25 26 26 26 27 26 25 25 25 25 25 25 25 26 25 25 25 25 25 25 26 26 27 27 28 29 30 32 33 33 33 33 31 32 30 29 27 25 25 25 24 24
18 19 20 21 21 22 24 25 25 25 25 24 24 23 23 23 22 23 23 23 23 22 22 22 22 22 22 22 22 23 24 25 26 27 28 30 30 31 33 32 32 31 30 30 28 26 26 26 25
21 21 21 21 21 21 23 25 24 23 23 23 22 21 21 20 20 20 20 21 20 21 21 21 21 21 21 20 20 20 21 22 23 24 26 27 28 29 31 31 31 32 32 31 30 28 27 27 27
17 18 18 20 21 20 22 25 24 22 22 21 20 19 17 17 18 18 19 20 20 21 21 21 21 21 20 19 19 19 19 19 20 21 23 25 26 27 28 30 30 31 31 31 30 30 30 28 27
16 16 16 19 20 20 22 23 23 19 20 19 17 16 16 16 17 17 19 20 21 21 21 20 21 20 19 18 18 18 17 17 18 19 20 21 23 25 26 27 29 30 30 31 30 30 30 30 28
16 18 17 20 22 21 22 22 21 18 16 15 14 14 15 15 16 17 19 20 20 20 21 20 20 20 19 18 18 17 16 16 16 17 18 18 20 21 23 25 27 28 29 30 30 31 31 31 31
17 15 15 19 23 21 20 19 18 15 13 11 11 12 13 14 16 17 18 19 20 21 21 20 20 20 19 18 17 16 15 14 14 14 14 15 17 18 20 23 24 26 28 29 30 31 32 32 32
15 13 14 18 20 17 16 14 13 12 10 10 10 11 13 14 16 16 18 19 20 21 21 21 21 20 20 19 17 16 15 13 12 11 11 12 13 15 17 20 22 24 26 28 28 30 31 32 33
15 16 16 17 17 15 12 10 8 8 8 8 10 11 12 14 16 17 18 19 20 20 21 21 21 21 20 19 18 17 15 13 12 11 10 10 11 12 14 16 19 21 23 25 27 28 30 31 32
17 16 13 13 12 11 9 8 6 6 7 8 9 10 12 14 15 17 17 19 20 20 21 21 21 21 21 21 19 18 16 14 13 11 11 10 10 11 12 13 15 18 20 23 25 26 27 29 30
15 12 11 10 8 7 6 6 7 6 7 8 9 10 12 13 15 16 17 18 19 20 21 21 22 22 22 22 21 20 18 17 15 13 12 11 10 10 10 11 12 15 17 20 23 25 26 27 29
12 10 8 6 5 3 4 5 7 6 7 8 9 10 11 12 14 15 16 17 18 19 20 21 22 22 23 22 22 21 20 19 17 16 15 14 12 10 10 10 11 12 15 17 20 22 25 27 28
11 9 5 1 6 6 5 5 5 6 7 7 8 9 10 11 12 13 15 16 17 18 19 20 21 22 22 23 23 22 21 21 19 18 17 16 14 13 11 11 11 11 12 14 17 20 22 25 27
10 9 8 7 3 9 8 7 4 5 5 6 7 8 9 10 11 12 14 15 16 17 19 20 20 21 22 23 23 23 22 22 21 20 19 18 17 15 13 12 11 12 12 14 16 18 20 22 25
11 10 9 8 10 6 7 6 2 4 5 6 7 8 8 9 10 11 13 14 15 17 18 19 20 21 22 22 23 23 23 23 22 22 21 20 19 18 17 15 14 13 13 14 16 17 19 21 23
10 9 8 8 9 7 7 9 4 3 5 5 6 7 8 8 9 10 12 13 15 16 17 19 20 21 22 22 23 23 24 23 23 23 22 22 21 21 20 18 17 16 15 15 15 16 18 21 23
11 10 9 8 7 8 8 6 4 4 4 5 6 7 7 8 9 10 12 13 14 15 17 18 19 20 21 22 22 23 23 23 23 23 23 23 23 22 21 21 19 17 17 16 16 17 18 20 22
10 10 9 9 9 7 6 3 3 3 3 4 5 6 7 8 9 10 11 13 14 15 16 17 18 19 20 21 22 22 22 22 23 23 23 24 23 23 23 22 21 20 19 18 18 18 19 21 23

GEFSSGP_500_meanwind_066.txt.gz
Wind_Speed
4 4 5 4 2 2 2 3 4 5 5 6 7 8 9 10 10 11 12 12 12 12 12 12 13 13 14 15 16 16 16 16 16 15 15 15 14 13 13 13 13 13 13 13 14 14 14 15 17
5 4 5 5 5 4 3 4 5 6 6 7 8 9 11 12 12 13 13 14 14 14 15 15 15 15 16 17 18 18 18 19 19 18 18 17 17 15 15 14 14 13 13 13 13 13 13 14 15
5 5 5 5 7 6 4 4 7 8 9 9 10 12 13 14 15 15 16 16 17 17 18 18 18 19 19 19 19 20 20 21 21 21 20 20 20 19 17 16 15 14 14 13 13 13 13 13 14
5 6 8 8 8 6 5 7 8 9 11 12 14 15 17 18 18 18 19 19 20 20 21 22 22 22 22 22 21 22 22 22 23 24 23 23 22 22 20 19 17 16 15 14 13 13 12 12 13
7 8 10 9 9 9 9 9 10 11 13 15 16 18 20 20 20 21 22 24 24 25 25 25 25 25 25 26 25 25 25 25 25 26 26 26 25 24 24 23 21 19 17 16 15 14 13 12 12
9 10 11 12 12 13 12 12 12 14 15 17 19 20 21 22 22 24 25 26 27 27 27 27 27 28 28 28 29 29 29 28 28 27 28 28 27 27 26 26 25 23 21 19 17 15 14 13 12
11 12 14 14 15 14 14 14 15 17 18 19 20 22 22 23 23 24 25 26 27 28 28 28 28 28 29 29 30 31 31 30 30 29 29 29 29 28 28 28 27 25 24 22 20 18 16 15 13
13 15 16 16 16 15 15 17 18 19 20 20 22 23 23 24 24 25 25 25 26 26 27 27 27 27 28 28 29 30 32 32 32 31 30 29 29 29 30 30 29 27 26 24 22 20 19 17 15
15 16 18 19 18 16 16 17 18 18 20 21 21 22 23 24 23 23 23 24 25 25 26 26 26 26 26 26 27 28 30 31 32 32 32 31 30 30 30 30 30 29 27 25 24 23 21 20 17
17 18 20 20 17 16 16 18 18 19 19 20 21 22 22 21 21 22 22 22 23 23 23 23 23 23 23 24 24 25 27 29 30 31 32 32 32 30 29 29 30 29 28 27 25 24 23 22 20
18 20 20 19 14 15 15 16 18 19 20 21 21 20 20 20 20 20 20 20 21 21 21 21 21 22 22 22 22 23 23 25 26 28 30 31 31 31 30 29 30 29 28 27 26 25 24 24 23
19 19 17 15 13 15 15 16 17 18 20 20 19 19 19 19 19 19 19 19 19 19 19 19 20 20 20 20 20 20 21 21 23 24 26 28 29 30 30 30 30 30 29 29 28 26 24 23 24
19 17 17 16 14 15 15 14 15 18 19 18 18 19 19 18 18 17 17 17 18 18 18 19 19 19 19 19 19 19 19 20 21 22 23 24 26 27 28 29 30 29 29 29 30 28 27 25 24
18 17 17 15 13 13 13 14 15 16 16 17 17 17 17 16 16 16 16 17 18 18 18 18 18 19 19 19 18 17 17 17 17 19 20 22 23 25 26 27 28 29 29 27 29 28 28 28 26
18 17 15 14 12 11 12 13 14 14 15 14 13 14 14 14 14 15 16 17 17 18 18 19 19 19 19 18 17 16 16 16 16 16 17 19 21 23 25 25 26 28 29 29 29 29 28 28 27
18 15 15 14 12 11 12 12 12 13 12 11 11 11 12 12 13 14 15 17 17 18 19 20 19 19 19 18 17 16 14 13 14 14 15 16 18 20 22 24 25 27 28 28 28 29 29 29 28
17 15 14 13 12 10 10 10 10 10 10 10 10 10 10 11 13 14 15 16 18 19 19 19 19 19 19 18 17 16 14 12 12 12 12 13 15 17 19 21 23 25 27 28 28 28 29 29 29
16 15 15 14 12 11 10 10 9 8 9 8 8 9 10 11 13 14 15 17 18 18 19 19 19 19 19 18 18 16 14 12 11 9 9 9 11 13 15 17 20 22 24 26 26 27 29 29 29
15 13 14 13 12 11 11 10 8 8 7 6 7 9 10 11 12 13 15 16 17 18 18 19 19 19 19 19 19 18 16 14 12 10 8 7 7 8 10 13 16 19 21 23 24 26 27 29 29
14 12 12 11 11 11 10 8 7 6 5 5 6 8 9 10 12 13 14 15 16 17 18 19 19 20 20 20 19 19 17 16 14 12 10 7 6 6 7 9 12 15 18 20 22 24 25 27 28
11 9 10 11 11 10 9 8 5 3 3 3 6 7 8 9 11 12 13 14 16 17 18 19 19 20 20 20 20 19 19 17 16 15 13 10 8 6 6 7 9 11 13 16 19 21 24 25 26
9 9 10 10 10 10 9 6 4 2 0 2 5 7 7 8 10 11 12 14 15 16 17 18 19 20 20 20 20 20 20 19 18 17 16 14 11 9 7 6 6 8 10 12 16 18 21 23 25
10 10 10 9 9 8 6 4 2 2 2 3 4 5 6 7 8 10 11 13 14 15 16 17 18 19 20 20 20 20 20 20 19 18 17 16 14 11 10 8 6 6 8 9 12 16 18 21 24
11 10 10 9 9 7 5 3 3 4 3 4 3 3 4 5 7 8 10 11 13 14 15 16 17 19 19 20 20 20 20 20 19 19 19 17 16 14 12 10 8 7 7 8 9 12 15 18 20
11 10 10 10 10 8 6 5 5 5 4 4 3 3 3 4 6 7 9 10 12 13 14 15 16 17 18 19 20 20 20 20 20 20 19 19 18 16 15 13 11 9 8 8 8 10 12 15 18
11 11 10 11 11 10 8 6 5 5 5 4 3 2 2 3 4 6 7 9 10 12 13 14 16 17 18 18 18 19 19 19 19 19 19 19 19 18 17 15 13 12 10 9 8 9 11 13 16
11 10 10 11 12 11 8 6 5 5 4 4 3 2 2 3 4 5 6 8 9 11 13 14 15 16 17 18 18 18 18 18 19 19 19 19 19 19 18 17 16 15 13 11 10 9 10 11 13
11 11 11 11 11 11 9 8 8 6 4 3 3 3 2 2 3 4 5 7 9 11 13 14 15 16 17 17 18 18 18 18 18 19 19 19 19 19 18 18 17 16 15 14 13 11 11 11 12
11 11 11 11 11 10 8 7 7 7 6 5 4 3 2 1 2 3 5 7 9 11 13 14 15 16 17 18 18 18 19 19 19 19 19 19 19 19 18 18 18 17 17 16 15 14 13 13 13
12 12 11 11 10 10 8 7 7 7 7 7 5 4 2 1 1 3 6 8 9 11 13 15 16 17 17 18 18 18 18 18 18 18 18 19 19 19 19 18 18 18 18 18 17 16 15 15 13

GEFSSGP_500_meanwind_072.txt.gz
Wind_Speed
6 7 7 7 6 3 2 1 3 4 5 6 7 8 9 10 11 12 13 13 13 14 14 15 15 15 16 16 17 17 17 17 17 17 16 16 15 14 13 12 12 12 11 11 11 12 12 11 12
7 8 8 8 5 5 4 3 4 4 5 7 9 10 11 13 14 15 15 15 16 16 16 17 18 18 19 19 19 19 20 20 19 19 19 18 18 17 16 15 14 14 13 12 12 12 12 12 11
8 9 10 8 5 5 5 5 6 6 6 9 11 12 14 15 16 17 17 18 19 20 20 20 21 21 22 22 22 22 23 22 21 21 21 21 21 20 19 18 17 16 15 14 13 12 12 12 11
10 11 10 8 7 7 7 7 7 7 8 10 12 14 15 17 18 18 19 20 21 21 22 23 23 24 24 24 24 25 25 25 25 24 23 23 23 22 22 20 19 18 17 16 15 14 13 12 12
11 12 11 9 9 8 8 8 9 9 11 13 15 16 17 18 19 20 20 21 22 23 24 25 25 26 26 27 27 28 28 28 28 27 26 26 25 25 24 24 22 21 20 18 17 16 14 13 13
13 13 12 11 11 10 9 11 12 13 15 16 17 18 19 19 20 21 22 23 23 24 24 25 25 25 26 27 27 28 29 29 30 30 29 28 28 27 26 26 25 24 22 21 20 18 16 15 14
14 14 13 13 13 12 12 12 14 15 16 16 17 19 19 20 20 21 22 22 23 23 24 25 25 25 25 26 26 26 27 28 29 30 31 30 30 29 28 28 27 27 25 23 23 21 19 18 16
15 15 15 15 14 14 13 15 16 17 16 17 18 19 19 20 20 21 21 21 21 22 23 23 23 23 23 23 24 24 25 27 27 29 31 31 31 31 29 29 29 29 27 26 24 23 22 20 18
17 16 16 15 15 15 15 16 17 16 17 17 18 18 18 19 19 19 19 19 19 20 20 20 20 21 21 21 22 23 24 25 25 26 27 29 31 31 31 30 30 30 28 27 27 25 24 22 20
17 18 17 16 15 15 16 16 17 16 17 17 17 17 18 18 18 18 17 18 18 18 18 18 18 19 19 19 20 21 22 23 23 23 25 27 28 30 32 32 31 29 29 28 26 26 25 23 21
19 19 17 16 15 16 17 17 17 16 17 16 16 16 17 16 16 16 15 15 16 16 17 18 18 18 18 19 19 19 20 20 21 22 22 24 26 28 30 31 32 30 29 28 27 25 27 24 23
20 20 17 16 16 15 15 16 15 14 15 15 15 15 15 14 14 14 14 14 15 16 17 17 17 17 18 18 18 19 19 19 19 20 21 22 23 25 27 28 30 30 29 29 28 27 26 25 23
19 18 16 15 15 14 14 14 13 13 13 14 14 13 12 12 12 12 13 13 14 15 16 17 17 17 17 17 18 18 18 17 17 17 18 19 20 21 23 25 27 28 28 29 28 27 26 27 24
19 18 16 15 15 14 13 13 13 13 13 13 12 11 11 10 10 10 11 12 13 14 15 16 16 17 17 17 17 17 17 16 16 15 15 16 17 18 20 22 24 26 28 28 27 27 26 26 26
19 17 15 13 13 13 13 12 13 13 12 12 12 10 9 8 8 9 9 11 12 14 15 15 16 17 17 17 17 18 17 16 15 14 14 13 14 15 17 19 22 24 27 27 27 27 26 26 26
18 15 14 13 13 13 13 12 12 12 12 11 10 9 8 7 6 7 8 10 12 13 14 15 16 17 18 18 18 18 18 17 15 14 13 12 12 13 14 16 18 21 24 25 25 26 26 26 25
16 15 14 12 11 11 12 12 13 12 11 10 9 8 6 4 4 6 8 10 11 13 14 16 16 17 18 19 19 19 19 18 16 14 12 10 10 10 10 12 15 17 19 22 24 25 26 26 26
15 15 12 10 10 11 11 12 13 12 11 9 8 6 4 2 3 5 7 9 11 12 14 16 17 18 19 19 19 19 19 18 17 15 13 10 9 8 9 9 11 14 16 18 21 22 24 25 26
16 14 11 10 11 11 12 13 13 12 11 9 7 5 3 0 3 5 6 8 10 12 14 15 17 18 19 19 19 19 19 19 18 17 15 12 9 8 7 8 8 10 13 16 18 20 23 25 25
14 12 11 12 12 12 13 13 13 12 10 8 7 5 3 2 3 4 6 7 9 11 13 15 16 18 18 19 19 19 19 19 19 19 17 14 12 9 7 6 6 7 10 13 16 18 20 22 24
13 12 12 13 13 13 13 12 12 11 9 8 7 6 5 3 2 3 5 7 9 11 12 14 16 17 18 19 19 19 19 19 19 19 18 16 14 12 9 7 5 5 7 10 13 16 17 19 21
13 13 14 14 13 13 13 12 12 10 9 8 7 7 6 4 2 2 4 6 8 10 12 13 15 17 18 18 19 19 19 19 19 19 19 17 15 13 11 9 7 5 4 6 9 11 14 17 20
15 14 14 14 14 12 12 12 11 9 8 8 8 7 6 5 3 2 3 5 7 9 11 13 14 16 17 18 19 19 19 19 19 19 19 18 17 15 13 11 9 7 5 4 5 8 11 14 17
15 15 15 15 14 12 12 11 10 9 8 8 9 8 7 5 3 1 2 4 7 8 10 12 14 15 16 17 18 18 19 19 19 19 19 18 18 17 15 13 11 9 7 5 5 6 8 11 14
14 15 16 15 14 12 12 11 9 9 9 9 9 8 7 6 4 1 1 4 6 8 10 12 13 15 16 16 17 18 18 18 18 18 18 18 18 17 16 15 13 11 9 7 6 6 7 9 11
14 15 15 16 15 13 12 11 9 10 10 9 9 9 8 6 4 2 1 3 6 8 10 12 13 14 15 16 16 17 17 17 18 18 18 18 17 17 16 15 14 12 11 10 8 7 5 6 8
15 15 16 16 15 14 12 10 10 11 11 11 10 9 8 7 5 3 0 3 5 7 10 11 13 14 15 15 16 16 16 17 16 17 17 17 17 17 16 15 14 13 12 11 10 9 7 5 5
15 15 15 16 15 14 12 11 11 12 12 12 11 10 9 7 5 3 1 2 5 7 9 11 13 14 15 15 15 15 15 16 16 16 16 16 16 16 16 15 15 14 13 13 12 11 9 7 6
15 15 15 16 15 14 12 10 12 12 12 12 12 11 9 8 6 4 2 2 4 7 9 11 12 13 14 14 15 15 15 15 15 15 15 15 16 15 15 15 15 15 14 13 13 13 12 10 8
16 16 16 16 15 14 13 9 12 12 12 13 12 11 10 8 7 5 3 3 4 7 9 10 12 13 14 14 14 15 15 15 15 15 15 15 15 15 15 15 14 14 14 14 14 13 13 12 10

GEFSSGP_500_meanwind_078.txt.gz
Wind_Speed
7 7 5 5 5 3 3 2 2 3 3 4 4 5 7 8 9 11 13 14 15 15 15 15 15 16 16 17 18 18 18 18 18 18 17 17 17 17 17 17 17 17 16 16 16 15 15 15 15
9 8 7 6 5 5 3 3 4 5 5 5 6 7 8 10 12 13 14 16 17 17 17 17 18 18 19 20 21 22 23 22 22 21 20 19 19 19 19 19 19 19 18 18 17 17 16 15 15
10 9 8 7 6 6 5 5 6 6 6 7 8 9 10 12 13 15 16 17 18 18 19 19 20 21 21 22 23 24 25 25 24 24 23 22 21 21 21 21 21 21 20 20 19 18 17 17 16
11 10 9 8 7 7 6 6 6 7 7 8 9 11 13 14 15 16 17 18 18 19 20 20 21 22 22 23 24 25 27 27 27 26 26 25 24 24 24 23 23 23 23 22 21 20 19 18 17
13 11 10 8 8 8 8 7 8 8 9 9 11 13 14 16 17 17 17 18 19 20 20 20 21 21 23 24 24 25 27 28 28 28 28 28 28 27 26 25 24 24 24 23 23 22 20 19 18
14 13 11 10 9 9 9 8 8 8 10 11 13 15 16 16 17 17 18 18 18 19 19 19 20 21 22 22 23 24 25 26 27 28 29 30 30 30 29 28 27 26 25 25 24 23 22 20 19
15 14 12 11 10 10 10 9 9 11 11 13 14 15 16 16 16 17 17 17 17 17 17 18 18 19 19 20 21 22 23 24 25 26 28 29 30 31 31 31 30 28 27 28 26 25 23 22 20
17 15 14 12 12 11 11 11 11 12 13 14 15 15 15 16 16 16 16 16 16 16 16 17 17 17 18 18 19 19 20 21 22 23 24 26 28 29 31 32 31 30 29 28 27 26 25 24 21
17 16 15 13 13 13 12 11 11 12 14 15 15 15 15 15 16 16 15 14 14 15 15 15 16 17 17 17 17 18 19 19 20 21 22 23 26 27 29 30 30 31 30 28 28 26 27 26 24
18 17 16 15 14 13 12 12 12 14 14 15 15 15 14 14 14 14 13 13 13 13 13 14 15 15 16 16 16 17 17 18 18 19 20 21 23 25 27 28 28 29 30 29 28 27 26 26 25
20 19 18 16 15 13 12 13 12 13 13 14 14 13 13 13 13 12 11 11 11 12 12 12 13 14 15 15 15 16 16 17 17 18 19 20 21 22 23 24 26 27 28 29 28 28 27 26 25
21 19 17 15 14 14 13 13 13 13 12 13 13 13 13 12 11 11 10 10 10 10 10 11 12 13 13 14 15 15 16 16 16 16 17 17 18 19 20 22 24 25 26 27 28 28 27 26 25
21 19 17 15 14 14 13 12 12 12 12 12 13 13 13 11 10 9 8 9 9 9 9 10 11 12 13 13 14 15 15 15 15 16 16 16 16 17 18 19 20 22 24 25 26 27 27 25 25
21 18 17 15 14 14 13 12 12 12 12 12 12 12 11 10 9 8 8 8 7 7 8 9 10 12 13 14 14 15 15 15 15 15 15 15 15 15 15 17 18 19 21 23 25 26 27 26 26
20 18 17 15 14 14 13 13 14 13 12 12 12 11 10 9 8 7 7 6 5 6 7 8 10 12 13 14 15 15 15 16 16 15 14 13 12 12 13 14 15 17 19 20 23 25 26 26 26
19 17 16 15 14 14 14 14 14 13 13 13 12 11 10 8 7 6 5 4 5 6 7 8 10 11 13 14 14 15 15 16 16 15 14 12 10 9 10 11 13 15 17 18 21 24 25 25 26
18 16 15 14 14 15 15 14 14 13 13 13 12 11 9 7 6 6 5 4 4 5 7 8 10 11 12 13 14 15 16 16 16 15 14 12 9 8 8 9 11 12 14 15 17 21 24 24 25
16 15 15 15 14 14 14 14 13 12 13 13 12 10 8 7 6 5 5 4 4 5 6 8 9 11 12 13 14 15 16 16 16 15 14 12 10 8 6 7 8 9 11 13 15 18 21 22 23
15 14 14 14 14 13 13 12 14 13 13 12 11 10 8 7 6 6 5 4 4 5 6 7 9 10 12 13 14 15 16 16 16 15 14 12 10 9 7 5 6 6 8 10 13 16 19 20 21
14 13 13 13 12 13 13 13 15 14 13 12 11 10 8 7 6 6 6 5 4 5 6 7 8 10 11 12 14 15 15 16 16 16 15 13 11 9 7 6 4 4 6 8 10 13 15 18 20
15 13 14 13 12 12 13 13 14 14 13 12 11 10 9 8 7 7 7 5 5 5 5 7 8 9 11 12 13 14 15 16 16 16 15 14 13 11 9 6 4 2 2 4 7 10 13 15 17
15 14 14 13 12 12 12 12 14 14 13 12 11 11 10 9 8 8 7 6 5 5 5 7 8 9 10 11 12 13 14 15 15 15 15 15 14 12 10 8 6 4 1 1 4 6 9 12 15
15 14 13 13 12 12 13 13 12 13 12 11 11 11 11 10 9 8 8 6 5 5 5 7 8 9 10 11 12 13 13 14 14 15 15 15 14 13 12 10 8 6 3 1 1 3 6 8 11
14 14 13 13 12 12 13 13 12 13 12 11 11 11 11 11 10 9 8 7 6 5 5 6 7 9 10 10 11 12 12 13 13 14 14 14 14 13 12 11 10 8 6 3 1 1 3 6 8
13 13 13 13 13 13 13 13 12 13 12 11 11 11 11 11 11 10 9 7 6 5 5 6 7 8 9 10 10 11 11 12 12 13 13 13 14 13 12 12 11 9 7 5 3 1 1 3 6
14 13 13 13 13 13 13 13 12 13 12 12 11 11 12 11 11 10 9 8 7 6 5 5 7 8 9 9 10 10 11 11 11 12 12 12 13 13 12 12 11 10 9 7 5 3 2 2 5
13 13 13 14 14 13 13 13 13 13 12 12 12 12 12 12 12 11 10 8 7 6 5 5 6 7 8 9 9 10 10 10 11 11 11 12 12 12 12 12 11 10 9 8 6 5 3 2 3
13 14 14 14 15 14 12 12 13 13 13 12 12 13 13 13 13 12 11 9 8 7 6 5 6 7 8 8 9 9 9 10 10 10 10 11 11 11 11 11 11 10 9 8 7 6 5 3 2
14 14 15 16 15 15 13 11 13 13 13 13 13 14 14 14 14 13 12 10 9 7 6 6 6 6 7 8 8 9 9 9 9 9 10 10 10 10 10 10 10 10 9 8 8 7 6 5 4
15 15 17 17 17 15 14 12 14 14 14 14 14 15 15 15 15 14 13 12 10 8 7 6 6 6 6 7 8 8 9 9 9 9 10 10 10 10 10 10 9 9 9 8 7 7 6 5 5

GEFSSGP_500_meanwind_084.txt.gz
Wind_Speed
10 9 8 8 8 7 6 4 5 5 4 5 7 8 8 9 10 12 13 14 15 15 16 17 18 18 19 19 19 20 20 20 20 21 22 22 22 21 22 22 22 22 22 22 21 21 20 19 19
11 9 9 9 8 7 5 4 5 5 6 7 9 10 10 11 12 13 15 16 17 17 18 18 19 19 20 20 20 21 22 23 23 24 25 25 25 25 24 24 24 24 24 24 23 23 22 21 20
11 10 10 9 8 8 6 6 6 6 8 9 10 11 11 12 12 14 16 17 18 18 18 19 19 19 20 20 21 22 23 24 25 26 26 26 26 26 25 25 25 25 26 25 25 24 23 23 21
12 12 11 11 10 10 10 9 9 9 9 10 11 11 12 13 14 15 17 18 18 18 19 19 19 19 20 20 20 20 21 22 24 25 25 25 26 26 26 26 26 26 27 27 27 26 25 24 23
14 13 12 11 12 11 11 11 11 10 10 11 12 11 12 14 15 16 17 18 18 18 18 18 18 18 18 18 18 18 19 20 21 22 23 24 25 24 25 25 26 26 27 27 27 27 27 26 25
15 14 13 12 12 11 10 11 12 11 11 12 13 13 13 15 16 16 17 17 17 17 17 16 16 16 16 16 17 17 17 18 18 20 21 22 24 25 25 25 27 27 28 28 28 28 28 27 26
16 15 14 14 14 13 12 11 12 13 12 12 14 14 13 15 16 16 16 16 16 16 15 14 14 15 15 16 16 17 17 18 18 18 19 20 22 23 24 26 27 28 28 29 29 29 29 28 27
18 17 16 15 14 14 12 11 11 12 12 12 14 16 14 15 15 15 15 15 14 14 14 14 13 13 14 15 15 16 17 17 18 18 19 19 20 21 22 24 27 29 29 29 29 29 29 29 28
20 18 16 15 15 14 12 12 11 11 12 13 14 16 15 14 14 14 13 13 13 13 13 13 13 14 14 14 15 16 17 18 18 18 19 19 20 20 21 22 24 25 27 28 29 30 29 29 28
21 20 17 15 15 13 12 11 11 12 13 14 14 14 14 14 14 13 12 11 11 11 12 12 13 14 14 15 15 16 17 18 18 18 19 19 20 20 20 21 21 23 24 26 27 29 29 28 27
22 20 19 18 17 14 13 12 12 12 14 14 14 12 12 13 13 12 11 11 10 11 11 12 13 13 14 15 16 17 18 18 19 19 19 19 19 19 20 20 20 20 21 23 24 26 27 27 26
23 21 21 20 17 14 12 12 12 13 13 13 13 12 12 13 12 11 10 10 10 10 11 11 12 13 14 15 16 17 18 19 19 20 19 19 19 19 18 19 19 19 19 20 21 23 25 27 25
20 19 20 18 16 13 12 12 12 13 13 13 13 13 13 12 11 10 10 9 9 10 10 11 12 13 14 16 17 18 19 19 20 20 20 20 19 19 18 18 18 18 18 18 19 20 22 25 26
20 19 17 17 15 13 13 13 13 12 12 12 12 12 12 12 11 10 9 9 9 9 10 11 12 14 15 16 17 18 19 20 20 20 20 20 19 18 17 16 16 16 16 17 18 18 19 21 24
20 18 16 15 15 15 14 14 13 13 12 12 12 11 11 11 11 10 9 9 9 9 10 11 12 13 15 16 17 18 19 20 21 21 20 20 18 17 16 14 14 14 14 14 16 17 18 19 21
18 17 15 14 14 13 13 14 13 12 12 12 13 12 11 11 10 9 9 9 9 9 10 11 12 14 15 16 17 18 19 20 21 21 20 19 18 16 15 13 12 11 12 12 14 15 15 18 20
15 15 13 12 11 12 12 14 14 13 12 13 12 12 12 10 10 9 9 9 9 9 10 11 12 14 15 16 17 18 19 20 20 21 20 19 18 16 14 12 11 10 10 10 11 13 14 16 19
14 14 12 12 10 10 12 14 14 12 13 13 13 13 12 11 9 9 9 8 8 9 10 11 12 13 15 16 17 18 19 19 20 20 20 19 18 16 14 13 11 9 8 9 9 11 13 14 17
12 11 10 12 11 10 12 13 13 14 13 12 12 13 12 11 10 9 9 8 8 9 10 11 12 14 15 16 17 18 18 19 19 20 20 19 18 16 15 13 11 9 7 7 7 9 11 13 15
10 10 12 14 11 10 11 12 13 13 12 12 12 12 12 11 10 9 9 9 8 9 10 11 12 13 15 16 17 17 18 18 19 19 19 18 17 16 15 13 11 8 6 5 4 6 9 11 13
12 11 12 12 9 9 10 9 11 12 12 12 12 12 12 11 10 9 9 9 9 9 10 11 12 13 14 15 16 17 17 18 18 18 18 18 17 16 15 13 11 8 6 4 3 3 6 9 12
13 12 10 9 8 8 8 8 10 13 13 12 12 12 12 11 11 10 9 9 9 10 10 10 11 13 14 15 16 17 17 17 17 17 17 17 16 15 14 13 11 9 6 4 3 1 4 7 10
12 9 8 7 7 7 7 8 10 14 15 13 12 11 11 11 11 11 10 10 9 9 9 10 11 12 13 14 15 16 16 16 16 16 16 16 16 15 14 13 12 10 7 6 4 2 2 5 7
9 7 6 5 5 6 7 10 9 14 16 16 14 12 11 11 11 11 11 10 10 9 9 9 10 12 13 14 15 15 15 15 15 15 15 15 15 14 13 13 12 11 8 6 5 3 1 2 4
7 6 5 4 5 6 7 11 11 15 15 15 14 13 12 12 11 11 11 11 10 9 9 9 10 11 12 13 14 15 15 15 14 14 14 14 14 13 13 12 12 11 9 7 5 4 3 1 2
6 6 6 7 8 8 8 9 14 18 16 15 14 13 13 12 12 12 12 12 11 10 10 10 10 11 12 13 14 14 14 14 13 13 13 14 13 13 12 12 11 10 9 8 6 5 4 2 0
7 7 8 10 9 7 6 8 16 19 17 15 14 14 13 13 13 13 12 12 11 11 10 10 10 10 11 12 13 13 13 13 13 13 13 13 12 12 12 11 11 10 9 8 7 6 5 4 3
8 9 10 10 10 9 8 9 14 19 19 18 16 15 14 14 14 13 13 13 12 12 11 10 10 10 11 11 12 13 13 12 12 12 12 12 12 12 11 11 10 10 9 8 7 6 6 5 4
9 10 11 11 10 10 12 12 19 21 20 19 18 16 15 15 15 15 14 13 13 12 12 11 10 10 10 11 11 12 12 12 12 12 12 12 12 12 11 10 10 9 8 8 7 6 6 5 4
12 12 13 14 13 14 16 16 20 21 20 19 19 18 17 16 16 15 15 15 14 13 13 12 11 10 10 10 10 11 11 12 12 11 12 12 12 12 11 10 10 9 8 7 7 6 6 5 5